FW3681 Weather Reports


Display with metric or nautical units.
time (UTC)temp
F
wind
direction
speed
MPH
gust
MPH
rain 1hr
in
rain 24hr
in
rain mn
in
humidity
%
barometer
mb
20210923034341 65 328 0.0 2.0 0.00 0.00 0.00 80 1016.1
20210923034248 65 328 1.0 2.0 0.00 0.00 0.00 80 1016.2
20210923034144 65 328 0.0 2.0 0.00 0.00 0.00 79 1016.2
20210923034057 65 328 0.0 2.0 0.00 0.00 0.00 79 1016.1
20210923034003 65 328 0.0 2.0 0.00 0.00 0.00 79 1016.1
20210923033842 65 328 0.0 2.0 0.00 0.00 0.00 79 1016.2
20210923033755 65 328 0.0 2.0 0.00 0.00 0.00 79 1016.3
20210923033641 65 328 0.0 2.0 0.00 0.00 0.00 79 1016.2
20210923033559 65 328 0.0 2.0 0.00 0.00 0.00 79 1016.2
20210923033500 65 328 0.0 2.0 0.00 0.00 0.00 79 1016.2
20210923033351 65 328 0.0 2.0 0.00 0.00 0.00 78 1016.2
20210923033257 65 328 0.0 2.0 0.00 0.00 0.00 78 1016.2
20210923033141 65 328 0.0 1.0 0.00 0.00 0.00 79 1016.3
20210923033104 65 328 0.0 1.0 0.00 0.00 0.00 79 1016.3
20210923032942 65 328 0.0 1.0 0.00 0.00 0.00 79 1016.3
20210923032850 66 328 0.0 3.0 0.00 0.00 0.00 79 1016.3
20210923032757 65 328 0.0 3.0 0.00 0.00 0.00 78 1016.4
20210923032640 66 328 0.0 3.0 0.00 0.00 0.00 78 1016.2
20210923032605 65 328 0.0 3.0 0.00 0.00 0.00 79 1016.3
20210923032439 65 328 0.0 3.0 0.00 0.00 0.00 78 1016.2
20210923032350 66 328 0.0 3.0 0.00 0.00 0.00 78 1016.3
20210923032257 66 328 0.0 3.0 0.00 0.00 0.00 78 1016.3
20210923032142 66 327 1.0 3.0 0.00 0.00 0.00 78 1016.3
20210923032107 66 327 1.0 3.0 0.00 0.00 0.00 78 1016.2
20210923031942 66 327 2.0 3.0 0.00 0.00 0.00 78 1016.2
20210923031849 66 350 1.0 3.0 0.00 0.00 0.00 78 1016.2
20210923031741 65 330 0.0 2.0 0.00 0.00 0.00 78 1016.1
20210923031646 66 330 0.0 2.0 0.00 0.00 0.00 78 1016.1
20210923031551 66 329 0.0 2.0 0.00 0.00 0.00 78 1016.1
20210923031445 66 329 1.0 2.0 0.00 0.00 0.00 78 1016.2
20210923031358 66 326 1.0 2.0 0.00 0.00 0.00 78 1016.1
20210923031249 66 326 1.0 2.0 0.00 0.00 0.00 78 1016.1
20210923031147 66 326 1.0 6.0 0.00 0.00 0.00 78 1016.2
20210923031053 66 355 1.0 6.0 0.00 0.00 0.00 78 1016.2
20210923030954 66 11 0.0 6.0 0.00 0.00 0.00 78 1016.2
20210923030840 66 11 0.0 6.0 0.00 0.00 0.00 78 1016.2
20210923030750 66 11 0.0 6.0 0.00 0.00 0.00 78 1016.2
20210923030647 66 11 1.0 6.0 0.00 0.00 0.00 78 1016.2
20210923030600 66 11 1.0 6.0 0.00 0.00 0.00 78 1016.1
20210923030454 66 9 1.0 6.0 0.00 0.00 0.00 78 1016.0
20210923030341 66 5 1.0 6.0 0.00 0.00 0.00 78 1016.0
20210923030248 66 25 1.0 6.0 0.00 0.00 0.00 78 1016.1
20210923030149 66 321 1.0 6.0 0.00 0.00 0.00 78 1016.0
20210923030101 66 321 1.0 6.0 0.00 0.00 0.00 78 1016.1
20210923025956 66 360 0.0 6.0 0.00 0.00 0.00 78 1016.0
20210923025843 66 360 1.0 6.0 0.00 0.00 0.00 77 1016.0
20210923025756 66 360 1.0 6.0 0.00 0.00 0.00 77 1016.1
20210923025639 66 360 2.0 6.0 0.00 0.00 0.00 77 1016.1
20210923025603 66 355 2.0 6.0 0.00 0.00 0.00 77 1016.1
20210923025504 66 328 2.0 6.0 0.00 0.00 0.00 77 1016.1
20210923025351 66 335 2.0 6.0 0.00 0.00 0.00 77 1016.1
20210923025256 66 300 1.0 4.0 0.00 0.00 0.00 77 1016.0
20210923025147 67 300 2.0 4.0 0.00 0.00 0.00 77 1015.9
20210923025111 67 300 2.0 4.0 0.00 0.00 0.00 77 1016.0
20210923025005 67 344 1.0 4.0 0.00 0.00 0.00 77 1015.9
20210923024851 67 331 1.0 4.0 0.00 0.00 0.00 77 1016.0
20210923024758 67 331 1.0 4.0 0.00 0.00 0.00 76 1016.0
20210923024641 67 342 2.0 4.0 0.00 0.00 0.00 76 1016.0
20210923024554 67 337 2.0 4.0 0.00 0.00 0.00 76 1016.0
20210923024449 67 355 2.0 4.0 0.00 0.00 0.00 76 1016.1
20210923024356 67 340 2.0 4.0 0.00 0.00 0.00 76 1016.0
20210923024243 67 12 1.0 4.0 0.00 0.00 0.00 76 1016.0
20210923024140 67 5 1.0 4.0 0.00 0.00 0.00 77 1015.9
20210923024057 67 351 1.0 3.0 0.00 0.00 0.00 77 1015.9
20210923023952 67 351 1.0 3.0 0.00 0.00 0.00 76 1015.8
20210923023839 67 323 1.0 3.0 0.00 0.00 0.00 76 1015.9
20210923023745 67 288 1.0 3.0 0.00 0.00 0.00 76 1015.9
20210923023649 67 287 2.0 3.0 0.00 0.00 0.00 76 1015.8
20210923023601 67 360 1.0 3.0 0.00 0.00 0.00 76 1015.8
20210923023502 67 355 1.0 4.0 0.00 0.00 0.00 76 1015.8
20210923023349 67 351 1.0 4.0 0.00 0.00 0.00 76 1015.8
20210923023255 67 355 1.0 4.0 0.00 0.00 0.00 76 1015.8
20210923023139 67 355 1.0 4.0 0.00 0.00 0.00 76 1015.8
20210923023058 67 355 1.0 4.0 0.00 0.00 0.00 76 1015.8
20210923023003 67 346 1.0 4.0 0.00 0.00 0.00 76 1015.8
20210923022849 67 346 1.0 4.0 0.00 0.00 0.00 76 1015.8
20210923022756 67 346 1.0 4.0 0.00 0.00 0.00 76 1015.8
20210923022642 67 346 2.0 4.0 0.00 0.00 0.00 76 1015.7
20210923022606 67 5 2.0 6.0 0.00 0.00 0.00 76 1015.7
20210923022446 67 318 1.0 6.0 0.00 0.00 0.00 76 1015.7
20210923022352 67 19 2.0 8.0 0.00 0.00 0.00 76 1015.8
20210923022258 67 319 2.0 8.0 0.00 0.00 0.00 75 1015.7
20210923022143 68 5 1.0 8.0 0.00 0.00 0.00 75 1015.7
20210923022108 68 15 2.0 8.0 0.00 0.00 0.00 75 1015.5
20210923021946 68 20 2.0 8.0 0.00 0.00 0.00 75 1015.6
20210923021852 68 346 2.0 8.0 0.00 0.00 0.00 75 1015.5
20210923021739 68 5 2.0 8.0 0.00 0.00 0.00 75 1015.6
20210923021645 68 340 3.0 8.0 0.00 0.00 0.00 75 1015.5
20210923021608 68 325 3.0 8.0 0.00 0.00 0.00 75 1015.6
20210923021443 68 360 2.0 4.0 0.00 0.00 0.00 75 1015.6
20210923021353 68 5 2.0 4.0 0.00 0.00 0.00 75 1015.6
20210923021240 68 355 2.0 3.0 0.00 0.00 0.00 75 1015.6
20210923021152 68 17 1.0 4.0 0.00 0.00 0.00 74 1015.6
20210923021109 68 22 1.0 4.0 0.00 0.00 0.00 75 1015.6
20210923020945 68 292 2.0 4.0 0.00 0.00 0.00 75 1015.6
20210923020902 68 360 2.0 4.0 0.00 0.00 0.00 74 1015.6
20210923020741 68 5 2.0 4.0 0.00 0.00 0.00 74 1015.6
20210923020646 68 323 2.0 4.0 0.00 0.00 0.00 74 1015.5
20210923020551 68 355 2.0 4.0 0.00 0.00 0.00 75 1015.5
20210923020453 68 302 1.0 4.0 0.00 0.00 0.00 74 1015.5
20210923020344 68 344 2.0 5.0 0.00 0.00 0.00 74 1015.6
20210923020250 68 344 2.0 5.0 0.00 0.00 0.00 74 1015.4
20210923020147 68 21 2.0 5.0 0.00 0.00 0.00 74 1015.5
20210923020100 69 21 2.0 5.0 0.00 0.00 0.00 74 1015.4
20210923015954 68 317 1.0 5.0 0.00 0.00 0.00 74 1015.4
20210923015841 69 15 2.0 5.0 0.00 0.00 0.00 74 1015.4
20210923015751 69 311 3.0 5.0 0.00 0.00 0.00 74 1015.4
20210923015649 69 224 3.0 7.0 0.00 0.00 0.00 74 1015.4
20210923015602 69 338 2.0 7.0 0.00 0.00 0.00 74 1015.4
20210923015457 69 327 1.0 7.0 0.00 0.00 0.00 74 1015.4
20210923015343 69 321 2.0 7.0 0.00 0.00 0.00 74 1015.4
20210923015300 69 321 2.0 7.0 0.00 0.00 0.00 74 1015.3
20210923015139 69 316 2.0 7.0 0.00 0.00 0.00 74 1015.4
20210923015103 69 318 2.0 7.0 0.00 0.00 0.00 74 1015.3
20210923014958 69 334 2.0 7.0 0.00 0.00 0.00 75 1015.4
20210923014845 69 296 2.0 7.0 0.00 0.00 0.00 74 1015.3
20210923014758 69 295 2.0 7.0 0.00 0.00 0.00 75 1015.3
20210923014640 69 355 1.0 7.0 0.00 0.00 0.00 75 1015.3
20210923014606 69 339 1.0 7.0 0.00 0.00 0.00 74 1015.2
20210923014441 69 335 2.0 7.0 0.00 0.00 0.00 74 1015.3
20210923014354 69 338 2.0 7.0 0.00 0.00 0.00 74 1015.2
20210923014241 69 319 1.0 7.0 0.00 0.00 0.00 74 1015.2
20210923014142 69 280 2.0 7.0 0.00 0.00 0.00 74 1015.2
20210923014115 69 299 3.0 7.0 0.00 0.00 0.00 74 1015.1
20210923013951 69 341 3.0 7.0 0.00 0.00 0.00 74 1015.1
20210923013856 69 346 2.0 8.0 0.00 0.00 0.00 74 1015.2
20210923013743 69 5 2.0 8.0 0.00 0.00 0.00 74 1015.2
20210923013643 70 5 2.0 8.0 0.00 0.00 0.00 74 1015.1
20210923013616 70 5 3.0 8.0 0.00 0.00 0.00 73 1015.2
20210923013450 70 281 3.0 8.0 0.00 0.00 0.00 74 1015.2
20210923013356 70 337 2.0 8.0 0.00 0.00 0.00 74 1015.1
20210923013242 70 300 4.0 8.0 0.00 0.00 0.00 74 1015.1
20210923013143 70 344 4.0 8.0 0.00 0.00 0.00 74 1015.1
20210923013056 70 291 3.0 8.0 0.00 0.00 0.00 74 1015.0
20210923012951 70 24 3.0 8.0 0.00 0.00 0.00 74 1015.2
20210923012858 70 290 3.0 8.0 0.00 0.00 0.00 74 1015.1
20210923012745 70 349 3.0 8.0 0.00 0.00 0.00 74 1015.1
20210923012642 70 285 3.0 8.0 0.00 0.00 0.00 74 1015.0
20210923012559 70 5 2.0 8.0 0.00 0.00 0.00 74 1015.1
20210923012500 70 316 2.0 8.0 0.00 0.00 0.00 74 1015.0
20210923012349 70 281 3.0 10.0 0.00 0.00 0.00 74 1015.1
20210923012253 70 307 3.0 10.0 0.00 0.00 0.00 74 1015.0
20210923012139 70 269 3.0 10.0 0.00 0.00 0.00 74 1014.9
20210923012109 70 311 3.0 10.0 0.00 0.00 0.00 74 1014.9
20210923012002 70 317 4.0 10.0 0.00 0.00 0.00 74 1015.0
20210923011849 70 339 3.0 10.0 0.00 0.00 0.00 74 1015.0
20210923011756 70 313 2.0 10.0 0.00 0.00 0.00 74 1014.9
20210923011642 70 305 4.0 10.0 0.00 0.00 0.00 74 1015.0
20210923011551 70 275 4.0 12.0 0.00 0.00 0.00 74 1014.9
20210923011444 70 295 2.0 12.0 0.00 0.00 0.00 74 1014.9
20210923011350 70 296 2.0 12.0 0.00 0.00 0.00 74 1014.9
20210923011257 70 315 2.0 12.0 0.00 0.00 0.00 75 1014.8
20210923011142 70 341 2.0 12.0 0.00 0.00 0.00 75 1014.8
20210923011106 70 319 3.0 12.0 0.00 0.00 0.00 74 1014.9
20210923010944 70 331 3.0 12.0 0.00 0.00 0.00 74 1014.8
20210923010851 70 340 4.0 12.0 0.00 0.00 0.00 74 1014.6
20210923010804 70 331 3.0 12.0 0.00 0.00 0.00 74 1014.8
20210923010644 70 45 3.0 8.0 0.00 0.00 0.00 75 1014.8
20210923010608 70 331 3.0 8.0 0.00 0.00 0.00 75 1014.6
20210923010448 71 308 4.0 8.0 0.00 0.00 0.00 75 1014.6
20210923010355 71 333 3.0 8.0 0.00 0.00 0.00 75 1014.7
20210923010242 71 327 2.0 10.0 0.00 0.00 0.00 75 1014.6
20210923010146 71 5 2.0 10.0 0.00 0.00 0.00 75 1014.5
20210923010052 71 355 2.0 10.0 0.00 0.00 0.00 76 1014.6
20210923005947 71 294 3.0 10.0 0.00 0.00 0.00 75 1014.6
20210923005903 71 290 3.0 10.0 0.00 0.00 0.00 75 1014.5
20210923005750 71 309 3.0 10.0 0.00 0.00 0.00 76 1014.5
20210923005650 71 321 3.0 10.0 0.00 0.00 0.00 76 1014.5
20210923005601 71 9 3.0 10.0 0.00 0.00 0.00 76 1014.5
20210923005456 71 306 3.0 10.0 0.00 0.00 0.00 76 1014.6
20210923005347 71 301 3.0 8.0 0.00 0.00 0.00 76 1014.5
20210923005252 71 36 3.0 8.0 0.00 0.00 0.00 76 1014.5
20210923005149 71 244 3.0 9.0 0.00 0.00 0.00 76 1014.5
20210923005103 71 15 3.0 9.0 0.00 0.00 0.00 77 1014.4
20210923004958 71 294 3.0 9.0 0.00 0.00 0.00 77 1014.4
20210923004848 71 338 2.0 9.0 0.00 0.00 0.00 77 1014.4
20210923004801 71 306 2.0 9.0 0.00 0.00 0.00 77 1014.4
20210923004649 71 342 2.0 9.0 0.00 0.00 0.00 77 1014.3
20210923004606 71 34 3.0 9.0 0.00 0.00 0.00 77 1014.3
20210923004441 71 345 3.0 9.0 0.00 0.00 0.00 77 1014.3
20210923004348 71 30 3.0 9.0 0.00 0.00 0.00 77 1014.2
20210923004305 71 327 2.0 5.0 0.00 0.00 0.00 77 1014.2
20210923004141 71 328 3.0 5.0 0.00 0.00 0.00 77 1014.2
20210923004109 71 317 3.0 5.0 0.00 0.00 0.00 77 1014.3
20210923003944 71 342 3.0 6.0 0.00 0.00 0.00 77 1014.2
20210923003857 71 15 2.0 6.0 0.00 0.00 0.00 77 1014.2
20210923003748 71 355 2.0 6.0 0.00 0.00 0.00 77 1014.2
20210923003646 71 12 2.0 6.0 0.00 0.00 0.00 77 1014.1
20210923003553 71 34 2.0 6.0 0.00 0.00 0.00 77 1014.1
20210923003454 71 5 2.0 6.0 0.00 0.00 0.00 77 1014.2
20210923003341 71 310 2.0 6.0 0.00 0.00 0.00 77 1014.1
20210923003253 71 313 3.0 6.0 0.00 0.00 0.00 77 1014.1
20210923003139 71 329 3.0 6.0 0.00 0.00 0.00 77 1014.2
20210923003102 71 309 3.0 6.0 0.00 0.00 0.00 77 1014.1
20210923002958 71 13 2.0 7.0 0.00 0.00 0.00 77 1014.1
20210923002844 71 319 1.0 3.0 0.00 0.00 0.00 77 1013.9
20210923002751 71 315 1.0 4.0 0.00 0.00 0.00 77 1014.0
20210923002640 71 273 1.0 4.0 0.00 0.00 0.00 77 1013.9
20210923002604 71 266 1.0 4.0 0.00 0.00 0.00 77 1013.9
20210923002440 71 302 2.0 4.0 0.00 0.00 0.00 77 1014.0
20210923002345 71 41 1.0 4.0 0.00 0.00 0.00 77 1013.9
20210923002252 71 5 1.0 4.0 0.00 0.00 0.00 77 1013.9
20210923002143 71 5 1.0 4.0 0.00 0.00 0.00 77 1013.9
20210923002107 71 5 1.0 4.0 0.00 0.00 0.00 77 1013.9
20210923001958 71 9 2.0 4.0 0.00 0.00 0.00 77 1013.9
20210923001845 71 9 1.0 5.0 0.00 0.00 0.00 77 1013.9
20210923001751 71 306 1.0 5.0 0.00 0.00 0.00 77 1013.8
20210923001641 71 306 1.0 5.0 0.00 0.00 0.00 77 1013.8
20210923001605 72 319 1.0 5.0 0.00 0.00 0.00 77 1013.8
20210923001439 72 332 1.0 5.0 0.00 0.00 0.00 77 1013.9
20210923001346 72 9 1.0 5.0 0.00 0.00 0.00 77 1013.8
20210923001259 72 9 1.0 5.0 0.00 0.00 0.00 76 1013.8
20210923001141 72 9 2.0 5.0 0.00 0.00 0.00 76 1013.8
20210923001107 72 9 2.0 5.0 0.00 0.00 0.00 76 1013.8
20210923000942 72 26 1.0 5.0 0.00 0.00 0.00 76 1013.7
20210923000855 72 300 0.0 2.0 0.00 0.00 0.00 76 1013.7
20210923000742 72 295 0.0 2.0 0.00 0.00 0.00 76 1013.7
20210923000640 72 294 0.0 2.0 0.00 0.00 0.00 76 1013.7
20210923000552 72 294 0.0 3.0 0.00 0.00 0.00 77 1013.7
20210923000453 72 288 1.0 3.0 0.00 0.00 0.00 76 1013.7
20210923000339 72 287 1.0 3.0 0.00 0.00 0.00 76 1013.8
20210923000248 72 329 1.0 3.0 0.00 0.00 0.00 76 1013.7
20210923000142 72 329 1.0 3.0 0.00 0.00 0.00 76 1013.7
20210923000058 72 329 1.0 3.0 0.00 0.00 0.00 75 1013.7
20210922235953 72 329 1.0 3.0 0.00 0.00 0.00 75 1013.6
20210922235840 72 295 1.0 3.0 0.00 0.00 0.00 75 1013.7
20210922235747 72 294 1.0 3.0 0.00 0.00 0.00 75 1013.7
20210922235645 72 339 1.0 3.0 0.00 0.00 0.00 75 1013.6
20210922235558 72 329 1.0 3.0 0.00 0.00 0.00 75 1013.6
20210922235457 72 329 2.0 3.0 0.00 0.00 0.00 74 1013.6
20210922235344 72 355 1.0 3.0 0.00 0.00 0.00 74 1013.6
20210922235257 72 45 1.0 4.0 0.00 0.00 0.00 74 1013.7
20210922235143 72 47 1.0 5.0 0.00 0.00 0.00 74 1013.6
20210922235101 72 35 1.0 5.0 0.00 0.00 0.00 74 1013.5
20210922234941 73 38 2.0 5.0 0.00 0.00 0.00 74 1013.6
20210922234854 73 38 2.0 5.0 0.00 0.00 0.00 74 1013.5
20210922234742 73 323 2.0 8.0 0.00 0.00 0.00 74 1013.5
20210922234647 73 325 2.0 8.0 0.00 0.00 0.00 73 1013.5
20210922234603 73 348 2.0 8.0 0.00 0.00 0.00 73 1013.5
20210922234449 73 294 3.0 8.0 0.00 0.00 0.00 73 1013.7
20210922234355 73 326 3.0 8.0 0.00 0.00 0.00 73 1013.6
20210922234240 73 329 2.0 8.0 0.00 0.00 0.00 73 1013.5
20210922234146 73 318 2.0 8.0 0.00 0.00 0.00 74 1013.5
20210922234051 73 5 2.0 8.0 0.00 0.00 0.00 73 1013.5
20210922233945 73 9 3.0 8.0 0.00 0.00 0.00 73 1013.5
20210922233855 73 276 3.0 8.0 0.00 0.00 0.00 73 1013.4
20210922233742 73 300 2.0 8.0 0.00 0.00 0.00 73 1013.5
20210922233640 73 288 2.0 8.0 0.00 0.00 0.00 73 1013.4
20210922233553 73 280 2.0 8.0 0.00 0.00 0.00 73 1013.4
20210922233448 73 279 3.0 8.0 0.00 0.00 0.00 73 1013.5
20210922233339 73 304 3.0 8.0 0.00 0.00 0.00 73 1013.5
20210922233245 73 321 2.0 8.0 0.00 0.00 0.00 73 1013.3
20210922233148 73 11 3.0 8.0 0.00 0.00 0.00 73 1013.4
20210922233055 73 333 2.0 8.0 0.00 0.00 0.00 73 1013.4
20210922232956 73 327 2.0 8.0 0.00 0.00 0.00 73 1013.3
20210922232847 74 306 2.0 8.0 0.00 0.00 0.00 73 1013.4
20210922232754 74 310 2.0 8.0 0.00 0.00 0.00 73 1013.4
20210922232641 74 311 3.0 8.0 0.00 0.00 0.00 73 1013.4
20210922232600 74 311 3.0 8.0 0.00 0.00 0.00 72 1013.4
20210922232501 74 290 3.0 8.0 0.00 0.00 0.00 73 1013.4
20210922232348 74 343 3.0 8.0 0.00 0.00 0.00 72 1013.2
20210922232239 74 293 3.0 8.0 0.00 0.00 0.00 72 1013.4
20210922232144 74 322 3.0 8.0 0.00 0.00 0.00 72 1013.3
20210922232108 74 269 3.0 8.0 0.00 0.00 0.00 72 1013.3
20210922231942 74 355 2.0 8.0 0.00 0.00 0.00 72 1013.2
20210922231849 74 51 3.0 8.0 0.00 0.00 0.00 72 1013.1
20210922231740 74 317 4.0 8.0 0.00 0.00 0.00 72 1013.2
20210922231647 74 329 5.0 8.0 0.00 0.00 0.00 72 1013.1
20210922231611 74 340 4.0 8.0 0.00 0.00 0.00 72 1013.2
20210922231445 75 302 4.0 8.0 0.00 0.00 0.00 72 1013.2
20210922231352 75 346 3.0 8.0 0.00 0.00 0.00 72 1013.1
20210922231243 75 17 3.0 8.0 0.00 0.00 0.00 72 1013.1
20210922231141 75 5 3.0 8.0 0.00 0.00 0.00 72 1013.2
20210922231053 75 350 3.0 8.0 0.00 0.00 0.00 72 1013.1
20210922230948 75 302 3.0 8.0 0.00 0.00 0.00 71 1013.1
20210922230855 75 298 3.0 8.0 0.00 0.00 0.00 71 1013.2
20210922230741 75 302 3.0 9.0 0.00 0.00 0.00 71 1013.0
20210922230650 75 281 3.0 12.0 0.00 0.00 0.00 71 1013.0
20210922230556 75 317 4.0 12.0 0.00 0.00 0.00 71 1013.1
20210922230457 75 249 3.0 12.0 0.00 0.00 0.00 71 1013.1
20210922230346 75 345 3.0 12.0 0.00 0.00 0.00 71 1013.1
20210922230251 75 348 3.0 12.0 0.00 0.00 0.00 71 1013.0
20210922230140 75 313 4.0 12.0 0.00 0.00 0.00 71 1013.0
20210922230058 76 309 4.0 12.0 0.00 0.00 0.00 71 1013.0
20210922225959 76 336 5.0 12.0 0.00 0.00 0.00 71 1013.0
20210922225845 76 288 4.0 12.0 0.00 0.00 0.00 71 1012.9
20210922225752 76 5 2.0 10.0 0.00 0.00 0.00 72 1012.9
20210922225642 76 13 2.0 10.0 0.00 0.00 0.00 72 1012.9
20210922225607 76 308 3.0 10.0 0.00 0.00 0.00 72 1013.0
20210922225442 76 332 3.0 10.0 0.00 0.00 0.00 73 1013.0
20210922225349 76 271 3.0 10.0 0.00 0.00 0.00 73 1013.0
20210922225256 76 333 2.0 10.0 0.00 0.00 0.00 73 1012.9
20210922225143 76 283 3.0 10.0 0.00 0.00 0.00 73 1013.1
20210922225111 76 276 4.0 10.0 0.00 0.00 0.00 73 1013.0
20210922224945 76 330 4.0 10.0 0.00 0.00 0.00 73 1012.9
20210922224852 76 53 3.0 9.0 0.00 0.00 0.00 74 1013.0
20210922224739 76 291 2.0 8.0 0.00 0.00 0.00 75 1012.9
20210922224646 76 343 1.0 8.0 0.00 0.00 0.00 74 1012.9
20210922224551 76 306 2.0 9.0 0.00 0.00 0.00 74 1012.9
20210922224446 76 300 3.0 9.0 0.00 0.00 0.00 74 1012.9
20210922224353 76 324 3.0 9.0 0.00 0.00 0.00 73 1012.7
20210922224239 77 298 3.0 9.0 0.00 0.00 0.00 73 1012.9
20210922224146 77 318 3.0 9.0 0.00 0.00 0.00 73 1012.9
20210922224056 77 306 2.0 9.0 0.00 0.00 0.00 73 1012.9
20210922223956 77 323 3.0 9.0 0.00 0.00 0.00 73 1012.7
20210922223845 77 355 4.0 9.0 0.00 0.00 0.00 72 1012.7
20210922223750 77 330 4.0 9.0 0.00 0.00 0.00 72 1012.6
20210922223648 77 318 4.0 9.0 0.00 0.00 0.00 72 1012.6
20210922223602 77 297 3.0 7.0 0.00 0.00 0.00 72 1012.7
20210922223441 77 355 3.0 7.0 0.00 0.00 0.00 72 1012.7
20210922223348 77 319 3.0 7.0 0.00 0.00 0.00 72 1012.7
20210922223255 77 327 3.0 7.0 0.00 0.00 0.00 72 1012.7
20210922223141 78 311 3.0 7.0 0.00 0.00 0.00 72 1012.7
20210922223106 78 260 3.0 9.0 0.00 0.00 0.00 72 1012.7
20210922222945 78 259 2.0 11.0 0.00 0.00 0.00 72 1012.7
20210922222852 78 360 3.0 11.0 0.00 0.00 0.00 72 1012.7
20210922222739 78 22 4.0 11.0 0.00 0.00 0.00 72 1012.7
20210922222646 78 306 3.0 11.0 0.00 0.00 0.00 72 1012.6
20210922222609 78 355 3.0 11.0 0.00 0.00 0.00 72 1012.7
20210922222448 78 46 2.0 11.0 0.00 0.00 0.00 72 1012.6
20210922222356 78 326 3.0 11.0 0.00 0.00 0.00 72 1012.6
20210922222242 78 300 4.0 11.0 0.00 0.00 0.00 72 1012.6
20210922222139 78 283 4.0 11.0 0.00 0.00 0.00 72 1012.7
20210922222053 78 295 3.0 11.0 0.00 0.00 0.00 72 1012.6
20210922221948 78 331 3.0 9.0 0.00 0.00 0.00 71 1012.5
20210922221839 78 338 3.0 9.0 0.00 0.00 0.00 72 1012.5
20210922221752 79 309 3.0 9.0 0.00 0.00 0.00 72 1012.5
20210922221640 79 329 4.0 9.0 0.00 0.00 0.00 71 1012.5
20210922221557 79 355 4.0 10.0 0.00 0.00 0.00 71 1012.5
20210922221451 79 315 2.0 10.0 0.00 0.00 0.00 72 1012.4
20210922221341 79 321 2.0 10.0 0.00 0.00 0.00 72 1012.4
20210922221254 79 321 2.0 10.0 0.00 0.00 0.00 72 1012.4
20210922221140 79 323 3.0 13.0 0.00 0.00 0.00 72 1012.3
20210922221057 79 22 3.0 13.0 0.00 0.00 0.00 71 1012.3
20210922220958 79 306 3.0 13.0 0.00 0.00 0.00 71 1012.4
20210922220850 79 317 3.0 13.0 0.00 0.00 0.00 71 1012.4
20210922220757 79 26 4.0 13.0 0.00 0.00 0.00 71 1012.4
20210922220644 79 27 4.0 13.0 0.00 0.00 0.00 70 1012.3
20210922220608 79 297 4.0 13.0 0.00 0.00 0.00 70 1012.3
20210922220503 79 304 5.0 13.0 0.00 0.00 0.00 70 1012.4
20210922220349 80 11 5.0 13.0 0.00 0.00 0.00 69 1012.4
20210922220240 80 303 5.0 13.0 0.00 0.00 0.00 69 1012.4
20210922220146 80 271 4.0 9.0 0.00 0.00 0.00 69 1012.4
20210922220109 80 286 4.0 9.0 0.00 0.00 0.00 69 1012.4
20210922215945 80 259 4.0 8.0 0.00 0.00 0.00 69 1012.5
20210922215851 80 274 4.0 8.0 0.00 0.00 0.00 70 1012.4
20210922215740 80 345 3.0 8.0 0.00 0.00 0.00 70 1012.4
20210922215639 80 290 2.0 8.0 0.00 0.00 0.00 71 1012.4
20210922215552 80 309 2.0 8.0 0.00 0.00 0.00 71 1012.4
20210922215447 80 296 2.0 8.0 0.00 0.00 0.00 72 1012.3
20210922215354 80 324 2.0 8.0 0.00 0.00 0.00 71 1012.3
20210922215245 80 317 3.0 8.0 0.00 0.00 0.00 70 1012.3
20210922215150 80 313 3.0 8.0 0.00 0.00 0.00 71 1012.3
20210922215054 80 348 3.0 8.0 0.00 0.00 0.00 71 1012.2
20210922214949 80 316 2.0 7.0 0.00 0.00 0.00 72 1012.2
20210922214902 80 19 2.0 7.0 0.00 0.00 0.00 72 1012.2
20210922214749 80 297 3.0 7.0 0.00 0.00 0.00 72 1012.3
20210922214640 80 279 4.0 10.0 0.00 0.00 0.00 72 1012.3
20210922214558 80 284 4.0 10.0 0.00 0.00 0.00 72 1012.3
20210922214459 80 296 3.0 10.0 0.00 0.00 0.00 72 1012.2
20210922214346 80 317 2.0 10.0 0.00 0.00 0.00 72 1012.2
20210922214253 80 338 2.0 10.0 0.00 0.00 0.00 72 1012.2
20210922214144 80 328 3.0 13.0 0.00 0.00 0.00 72 1012.2
20210922214109 80 331 3.0 13.0 0.00 0.00 0.00 72 1012.2
20210922213946 80 290 4.0 13.0 0.00 0.00 0.00 71 1012.3
20210922213851 80 296 4.0 13.0 0.00 0.00 0.00 72 1012.2
20210922213757 80 316 3.0 13.0 0.00 0.00 0.00 72 1012.2
20210922213648 80 270 3.0 13.0 0.00 0.00 0.00 73 1012.2
20210922213551 80 276 4.0 13.0 0.00 0.00 0.00 72 1012.3
20210922213445 80 300 4.0 13.0 0.00 0.00 0.00 72 1012.3
20210922213351 80 297 3.0 13.0 0.00 0.00 0.00 73 1012.2
20210922213258 80 284 2.0 9.0 0.00 0.00 0.00 74 1012.3
20210922213140 80 284 4.0 9.0 0.00 0.00 0.00 74 1012.3
20210922213053 81 292 3.0 9.0 0.00 0.00 0.00 74 1012.4
20210922212948 81 308 2.0 9.0 0.00 0.00 0.00 74 1012.3
20210922212901 81 340 3.0 9.0 0.00 0.00 0.00 74 1012.3
20210922212749 81 294 3.0 9.0 0.00 0.00 0.00 74 1012.3
20210922212646 81 270 2.0 9.0 0.00 0.00 0.00 74 1012.3
20210922212556 81 337 3.0 9.0 0.00 0.00 0.00 74 1012.4
20210922212457 81 294 3.0 9.0 0.00 0.00 0.00 73 1012.3
20210922212343 81 16 3.0 9.0 0.00 0.00 0.00 74 1012.3
20210922212250 81 31 4.0 9.0 0.00 0.00 0.00 74 1012.3
20210922212148 81 326 4.0 9.0 0.00 0.00 0.00 73 1012.2
20210922212105 81 307 4.0 9.0 0.00 0.00 0.00 73 1012.3
20210922211940 81 267 3.0 10.0 0.00 0.00 0.00 74 1012.2
20210922211847 81 292 3.0 11.0 0.00 0.00 0.00 74 1012.2
20210922211754 81 355 2.0 11.0 0.00 0.00 0.00 74 1012.2
20210922211641 81 304 3.0 11.0 0.00 0.00 0.00 74 1012.2
20210922211605 81 305 3.0 11.0 0.00 0.00 0.00 73 1012.2
20210922211443 81 281 2.0 11.0 0.00 0.00 0.00 73 1012.2
20210922211350 81 266 2.0 11.0 0.00 0.00 0.00 74 1012.3
20210922211256 81 277 3.0 11.0 0.00 0.00 0.00 73 1012.2
20210922211143 81 277 4.0 11.0 0.00 0.00 0.00 73 1012.1
20210922211107 81 272 4.0 11.0 0.00 0.00 0.00 73 1012.1
20210922210946 81 290 3.0 9.0 0.00 0.00 0.00 73 1012.2
20210922210853 81 333 3.0 13.0 0.00 0.00 0.00 73 1012.1
20210922210740 81 304 3.0 13.0 0.00 0.00 0.00 74 1012.2
20210922210639 81 300 4.0 13.0 0.00 0.00 0.00 73 1012.2
20210922210551 81 290 4.0 13.0 0.00 0.00 0.00 73 1012.2
20210922210450 80 290 3.0 13.0 0.00 0.00 0.00 74 1012.1
20210922210403 80 300 3.0 13.0 0.00 0.00 0.00 74 1012.2
20210922210250 80 308 3.0 13.0 0.00 0.00 0.00 73 1012.2
20210922210146 81 280 6.0 13.0 0.00 0.00 0.00 73 1012.2
20210922210100 81 319 6.0 13.0 0.00 0.00 0.00 72 1012.2
20210922205953 81 337 4.0 10.0 0.00 0.00 0.00 73 1012.2
20210922205843 81 344 3.0 10.0 0.00 0.00 0.00 73 1012.2
20210922205750 81 270 5.0 10.0 0.00 0.00 0.00 72 1012.1
20210922205648 81 301 5.0 10.0 0.00 0.00 0.00 71 1012.1
20210922205601 81 305 5.0 10.0 0.00 0.00 0.00 71 1012.1
20210922205455 81 345 5.0 10.0 0.00 0.00 0.00 71 1012.1
20210922205346 81 315 5.0 10.0 0.00 0.00 0.00 71 1012.2
20210922205252 81 329 3.0 9.0 0.00 0.00 0.00 72 1012.1
20210922205139 81 298 2.0 6.0 0.00 0.00 0.00 73 1012.0
20210922205103 81 340 2.0 6.0 0.00 0.00 0.00 73 1012.1
20210922204958 81 316 2.0 6.0 0.00 0.00 0.00 71 1012.1
20210922204850 81 275 2.0 6.0 0.00 0.00 0.00 72 1012.0
20210922204802 81 277 3.0 6.0 0.00 0.00 0.00 72 1012.1
20210922204649 81 299 3.0 6.0 0.00 0.00 0.00 71 1012.1
20210922204607 81 317 3.0 6.0 0.00 0.00 0.00 71 1012.1
20210922204442 81 286 3.0 11.0 0.00 0.00 0.00 71 1012.0
20210922204349 81 278 3.0 11.0 0.00 0.00 0.00 71 1012.1
20210922204242 81 360 3.0 11.0 0.00 0.00 0.00 71 1012.1
20210922204146 81 292 3.0 11.0 0.00 0.00 0.00 72 1012.1
20210922204103 81 295 3.0 11.0 0.00 0.00 0.00 72 1012.1
20210922204004 81 290 3.0 11.0 0.00 0.00 0.00 72 1012.1
20210922203851 81 288 3.0 11.0 0.00 0.00 0.00 72 1012.1
20210922203742 81 304 4.0 11.0 0.00 0.00 0.00 72 1012.1
20210922203640 81 291 4.0 11.0 0.00 0.00 0.00 73 1012.1
20210922203614 81 319 3.0 10.0 0.00 0.00 0.00 72 1012.1
20210922203449 82 327 4.0 10.0 0.00 0.00 0.00 71 1012.1
20210922203356 82 327 4.0 10.0 0.00 0.00 0.00 71 1012.1
20210922203247 83 320 3.0 9.0 0.00 0.00 0.00 71 1012.0
20210922203144 83 309 2.0 5.0 0.00 0.00 0.00 72 1012.1
20210922203057 83 5 2.0 5.0 0.00 0.00 0.00 72 1012.0
20210922202952 83 286 2.0 5.0 0.00 0.00 0.00 74 1012.0
20210922202839 82 324 2.0 5.0 0.00 0.00 0.00 74 1012.1
20210922202746 82 294 3.0 5.0 0.00 0.00 0.00 74 1012.1
20210922202646 82 303 3.0 5.0 0.00 0.00 0.00 74 1012.1
20210922202600 82 322 3.0 5.0 0.00 0.00 0.00 73 1012.0
20210922202455 82 290 2.0 5.0 0.00 0.00 0.00 73 1012.1
20210922202342 82 293 2.0 5.0 0.00 0.00 0.00 73 1012.1
20210922202255 82 280 2.0 8.0 0.00 0.00 0.00 73 1012.1
20210922202145 82 277 2.0 10.0 0.00 0.00 0.00 74 1012.1
20210922202102 82 323 2.0 10.0 0.00 0.00 0.00 74 1012.2
20210922202004 81 290 2.0 10.0 0.00 0.00 0.00 74 1012.2
20210922201851 81 336 2.0 10.0 0.00 0.00 0.00 74 1012.3
20210922201756 81 331 2.0 10.0 0.00 0.00 0.00 75 1012.3
20210922201647 81 308 3.0 10.0 0.00 0.00 0.00 74 1012.4
20210922201605 81 309 3.0 10.0 0.00 0.00 0.00 75 1012.3
20210922201439 81 304 4.0 10.0 0.00 0.00 0.00 74 1012.3
20210922201352 81 333 4.0 10.0 0.00 0.00 0.00 74 1012.3
20210922201258 81 316 4.0 8.0 0.00 0.00 0.00 74 1012.3
20210922201139 82 278 4.0 8.0 0.00 0.00 0.00 74 1012.3
20210922201113 82 302 3.0 8.0 0.00 0.00 0.00 74 1012.4
20210922200948 82 279 3.0 8.0 0.00 0.00 0.00 73 1012.3
20210922200855 82 288 3.0 8.0 0.00 0.00 0.00 73 1012.3
20210922200742 82 275 3.0 8.0 0.00 0.00 0.00 72 1012.3
20210922200639 82 285 2.0 8.0 0.00 0.00 0.00 73 1012.3
20210922200557 82 328 3.0 8.0 0.00 0.00 0.00 73 1012.4
20210922200452 82 307 3.0 8.0 0.00 0.00 0.00 73 1012.3
20210922200339 82 319 2.0 6.0 0.00 0.00 0.00 74 1012.4
20210922200246 82 306 2.0 6.0 0.00 0.00 0.00 74 1012.4
20210922200144 82 290 2.0 6.0 0.00 0.00 0.00 73 1012.4
20210922200101 82 331 3.0 6.0 0.00 0.00 0.00 74 1012.5
20210922195956 82 326 3.0 6.0 0.00 0.00 0.00 73 1012.5
20210922195910 82 300 3.0 5.0 0.00 0.00 0.00 72 1012.4
20210922195756 82 282 3.0 5.0 0.00 0.00 0.00 73 1012.5
20210922195643 82 284 2.0 5.0 0.00 0.00 0.00 73 1012.6
20210922195607 82 5 2.0 5.0 0.00 0.00 0.00 73 1012.5
20210922195445 82 319 2.0 6.0 0.00 0.00 0.00 72 1012.5
20210922195352 83 306 2.0 6.0 0.00 0.00 0.00 72 1012.5
20210922195239 83 307 2.0 6.0 0.00 0.00 0.00 71 1012.5
20210922195146 83 281 2.0 6.0 0.00 0.00 0.00 71 1012.4
20210922195110 83 292 2.0 6.0 0.00 0.00 0.00 71 1012.4
20210922194949 83 295 3.0 6.0 0.00 0.00 0.00 71 1012.4
20210922194856 84 301 3.0 8.0 0.00 0.00 0.00 70 1012.4
20210922194743 84 325 3.0 8.0 0.00 0.00 0.00 70 1012.5
20210922194640 84 346 3.0 8.0 0.00 0.00 0.00 70 1012.4
20210922194553 84 331 2.0 8.0 0.00 0.00 0.00 71 1012.4
20210922194447 84 5 1.0 8.0 0.00 0.00 0.00 71 1012.3
20210922194357 84 5 1.0 8.0 0.00 0.00 0.00 71 1012.4
20210922194243 83 10 1.0 8.0 0.00 0.00 0.00 71 1012.4
20210922194147 83 20 2.0 8.0 0.00 0.00 0.00 71 1012.4
20210922194053 83 327 3.0 8.0 0.00 0.00 0.00 70 1012.4
20210922193947 83 308 2.0 6.0 0.00 0.00 0.00 70 1012.4
20210922193845 83 322 2.0 5.0 0.00 0.00 0.00 71 1012.5
20210922193750 83 274 2.0 11.0 0.00 0.00 0.00 70 1012.5
20210922193648 83 272 3.0 11.0 0.00 0.00 0.00 70 1012.5
20210922193601 83 267 3.0 11.0 0.00 0.00 0.00 70 1012.5
20210922193456 83 304 2.0 11.0 0.00 0.00 0.00 70 1012.5
20210922193346 83 331 2.0 11.0 0.00 0.00 0.00 71 1012.5
20210922193252 83 295 2.0 11.0 0.00 0.00 0.00 71 1012.5
20210922193149 83 322 3.0 11.0 0.00 0.00 0.00 70 1012.6
20210922193101 83 292 4.0 11.0 0.00 0.00 0.00 70 1012.7
20210922192957 83 288 4.0 11.0 0.00 0.00 0.00 70 1012.6
20210922192843 83 5 2.0 10.0 0.00 0.00 0.00 72 1012.7
20210922192800 83 299 2.0 10.0 0.00 0.00 0.00 71 1012.6
20210922192648 83 279 4.0 11.0 0.00 0.00 0.00 70 1012.6
20210922192603 83 279 4.0 11.0 0.00 0.00 0.00 71 1012.6
20210922192439 82 344 4.0 11.0 0.00 0.00 0.00 71 1012.7
20210922192344 82 296 3.0 11.0 0.00 0.00 0.00 71 1012.7
20210922192302 82 325 3.0 11.0 0.00 0.00 0.00 72 1012.7
20210922192140 82 286 4.0 11.0 0.00 0.00 0.00 72 1012.6
20210922192106 82 302 4.0 11.0 0.00 0.00 0.00 72 1012.7
20210922191940 82 22 4.0 11.0 0.00 0.00 0.00 72 1012.7
20210922191854 82 300 5.0 11.0 0.00 0.00 0.00 72 1012.7
20210922191743 82 308 4.0 11.0 0.00 0.00 0.00 72 1012.7
20210922191642 82 5 3.0 8.0 0.00 0.00 0.00 73 1012.6
20210922191614 82 17 3.0 8.0 0.00 0.00 0.00 73 1012.7
20210922191449 82 279 3.0 8.0 0.00 0.00 0.00 74 1012.7
20210922191356 82 355 3.0 8.0 0.00 0.00 0.00 74 1012.7
20210922191243 81 302 2.0 6.0 0.00 0.00 0.00 75 1012.7
20210922191145 81 331 2.0 6.0 0.00 0.00 0.00 75 1012.7
20210922191058 81 301 3.0 8.0 0.00 0.00 0.00 75 1012.7
20210922190953 81 5 3.0 8.0 0.00 0.00 0.00 75 1012.7
20210922190841 82 342 2.0 8.0 0.00 0.00 0.00 74 1012.7
20210922190748 82 274 2.0 8.0 0.00 0.00 0.00 74 1012.7
20210922190649 82 299 2.0 8.0 0.00 0.00 0.00 74 1012.7
20210922190603 82 307 3.0 8.0 0.00 0.00 0.00 73 1012.7
20210922190457 82 309 3.0 8.0 0.00 0.00 0.00 73 1012.7
20210922190344 82 311 4.0 8.0 0.00 0.00 0.00 74 1012.8
20210922190257 82 302 4.0 8.0 0.00 0.00 0.00 74 1012.7
20210922190147 82 339 3.0 10.0 0.00 0.00 0.00 76 1012.8
20210922190105 82 355 2.0 10.0 0.00 0.00 0.00 76 1012.9
20210922185940 81 324 3.0 10.0 0.00 0.00 0.00 76 1012.9
20210922185846 81 286 2.0 10.0 0.00 0.00 0.00 75 1012.9
20210922185759 81 314 2.0 10.0 0.00 0.00 0.00 76 1012.9
20210922185642 81 312 2.0 10.0 0.00 0.00 0.00 76 1012.9
20210922185608 81 325 3.0 10.0 0.00 0.00 0.00 76 1013.0
20210922185442 81 304 4.0 10.0 0.00 0.00 0.00 74 1013.0
20210922185355 81 292 4.0 10.0 0.00 0.00 0.00 75 1013.0
20210922185242 81 292 4.0 10.0 0.00 0.00 0.00 74 1013.0
20210922185139 82 337 4.0 10.0 0.00 0.00 0.00 74 1013.1
20210922185116 82 304 4.0 10.0 0.00 0.00 0.00 75 1013.1
20210922184950 82 319 3.0 10.0 0.00 0.00 0.00 74 1013.1
20210922184857 82 355 2.0 10.0 0.00 0.00 0.00 76 1013.1
20210922184743 82 330 2.0 10.0 0.00 0.00 0.00 75 1013.1
20210922184640 82 297 1.0 10.0 0.00 0.00 0.00 76 1013.1
20210922184559 82 19 2.0 10.0 0.00 0.00 0.00 76 1013.1
20210922184454 82 5 2.0 10.0 0.00 0.00 0.00 75 1013.2
20210922184340 82 337 3.0 10.0 0.00 0.00 0.00 76 1013.2
20210922184247 82 328 4.0 10.0 0.00 0.00 0.00 75 1013.2
20210922184144 83 311 2.0 5.0 0.00 0.00 0.00 75 1013.2
20210922184058 83 343 2.0 4.0 0.00 0.00 0.00 76 1013.2
20210922183955 82 49 2.0 4.0 0.00 0.00 0.00 77 1013.3
20210922183842 82 340 2.0 5.0 0.00 0.00 0.00 76 1013.4
20210922183755 82 309 1.0 5.0 0.00 0.00 0.00 77 1013.3
20210922183641 82 295 1.0 5.0 0.00 0.00 0.00 77 1013.4
20210922183558 81 295 1.0 5.0 0.00 0.00 0.00 76 1013.3
20210922183503 81 295 1.0 5.0 0.00 0.00 0.00 76 1013.3
20210922183352 81 287 1.0 8.0 0.00 0.00 0.00 77 1013.4
20210922183257 81 287 2.0 8.0 0.00 0.00 0.00 76 1013.4
20210922183143 81 286 2.0 8.0 0.00 0.00 0.00 76 1013.5
20210922183101 81 288 2.0 8.0 0.00 0.00 0.00 76 1013.4
20210922182941 81 298 2.0 8.0 0.00 0.00 0.00 75 1013.5
20210922182854 82 290 2.0 8.0 0.00 0.00 0.00 77 1013.5
20210922182740 82 285 2.0 8.0 0.00 0.00 0.00 76 1013.4
20210922182647 82 310 2.0 8.0 0.00 0.00 0.00 75 1013.5
20210922182611 82 311 3.0 8.0 0.00 0.00 0.00 76 1013.6
20210922182446 82 293 3.0 8.0 0.00 0.00 0.00 77 1013.6
20210922182356 82 49 2.0 8.0 0.00 0.00 0.00 78 1013.6
20210922182305 81 324 2.0 8.0 0.00 0.00 0.00 78 1013.7
20210922182140 81 360 3.0 8.0 0.00 0.00 0.00 78 1013.7
20210922182052 81 344 3.0 8.0 0.00 0.00 0.00 78 1013.6
20210922181947 81 344 3.0 8.0 0.00 0.00 0.00 78 1013.7
20210922181900 81 304 3.0 8.0 0.00 0.00 0.00 78 1013.7
20210922181751 81 327 4.0 8.0 0.00 0.00 0.00 78 1013.7
20210922181648 81 308 3.0 8.0 0.00 0.00 0.00 77 1013.7
20210922181557 81 331 2.0 5.0 0.00 0.00 0.00 77 1013.8
20210922181458 81 291 2.0 5.0 0.00 0.00 0.00 77 1013.7
20210922181345 81 326 2.0 5.0 0.00 0.00 0.00 78 1013.8
20210922181256 81 325 1.0 5.0 0.00 0.00 0.00 78 1013.8
20210922181143 81 326 2.0 5.0 0.00 0.00 0.00 79 1013.8
20210922181107 81 324 2.0 5.0 0.00 0.00 0.00 79 1013.8
20210922180942 80 5 3.0 5.0 0.00 0.00 0.00 79 1013.8
20210922180849 80 338 2.0 4.0 0.00 0.00 0.00 80 1013.8
20210922180740 80 15 2.0 5.0 0.00 0.00 0.00 80 1013.8
20210922180647 80 331 1.0 5.0 0.00 0.00 0.00 81 1013.8
20210922180611 80 333 1.0 5.0 0.00 0.00 0.00 81 1013.8
20210922180446 79 316 1.0 5.0 0.00 0.00 0.00 83 1013.8
20210922180353 79 316 2.0 5.0 0.00 0.00 0.00 83 1013.8
20210922180244 79 316 2.0 6.0 0.00 0.00 0.00 83 1013.9
20210922180140 78 5 1.0 6.0 0.00 0.00 0.00 83 1013.9
20210922180053 78 5 2.0 6.0 0.00 0.00 0.00 83 1013.8
20210922175947 78 319 3.0 6.0 0.00 0.00 0.00 83 1014.0
20210922175854 78 350 2.0 6.0 0.00 0.00 0.00 82 1013.9
20210922175741 78 349 2.0 6.0 0.00 0.00 0.00 83 1014.0
20210922175643 78 323 2.0 9.0 0.00 0.00 0.00 83 1014.0
20210922175556 78 325 3.0 9.0 0.00 0.00 0.00 83 1014.0
20210922175451 78 306 2.0 9.0 0.00 0.00 0.00 82 1014.1
20210922175404 78 347 2.0 9.0 0.00 0.00 0.00 82 1014.1
20210922175251 78 309 3.0 9.0 0.00 0.00 0.00 82 1014.2
20210922175141 78 309 2.0 9.0 0.00 0.00 0.00 82 1014.1
20210922175058 79 317 2.0 9.0 0.00 0.00 0.00 82 1014.2
20210922175000 79 312 3.0 9.0 0.00 0.00 0.00 82 1014.3
20210922174847 79 5 3.0 9.0 0.00 0.00 0.00 82 1014.3
20210922174753 79 323 2.0 9.0 0.00 0.00 0.00 82 1014.3
20210922174644 79 5 3.0 6.0 0.00 0.00 0.00 82 1014.3
20210922174601 79 351 3.0 6.0 0.00 0.00 0.00 82 1014.2
20210922174502 79 31 3.0 6.0 0.00 0.00 0.00 82 1014.3
20210922174349 79 5 3.0 6.0 0.00 0.00 0.00 82 1014.3
20210922174256 79 315 3.0 6.0 0.00 0.00 0.00 81 1014.3
20210922174143 79 325 3.0 6.0 0.00 0.00 0.00 81 1014.3
20210922174053 79 300 3.0 6.0 0.00 0.00 0.00 81 1014.3
20210922173946 79 33 3.0 6.0 0.00 0.00 0.00 81 1014.4
20210922173853 79 289 3.0 6.0 0.00 0.00 0.00 81 1014.4
20210922173740 79 316 2.0 6.0 0.00 0.00 0.00 81 1014.4
20210922173647 79 257 2.0 6.0 0.00 0.00 0.00 81 1014.5
20210922173554 79 311 2.0 6.0 0.00 0.00 0.00 81 1014.4
20210922173449 79 313 2.0 6.0 0.00 0.00 0.00 81 1014.4
20210922173356 79 297 2.0 6.0 0.00 0.00 0.00 82 1014.4
20210922173243 79 277 2.0 10.0 0.00 0.00 0.00 81 1014.4
20210922173148 79 291 2.0 10.0 0.00 0.00 0.00 81 1014.4
20210922173057 79 291 2.0 10.0 0.00 0.00 0.00 81 1014.4
20210922172958 79 350 2.0 10.0 0.00 0.00 0.00 81 1014.5
20210922172847 79 294 3.0 10.0 0.00 0.00 0.00 80 1014.5
20210922172752 79 294 3.0 10.0 0.00 0.00 0.00 80 1014.6
20210922172639 80 295 3.0 10.0 0.00 0.00 0.00 80 1014.6
20210922172558 80 284 4.0 10.0 0.00 0.00 0.00 80 1014.6
20210922172503 80 277 5.0 10.0 0.00 0.00 0.00 80 1014.6
20210922172349 80 274 4.0 9.0 0.00 0.00 0.00 80 1014.6
20210922172255 80 279 3.0 9.0 0.00 0.00 0.00 80 1014.5
20210922172141 80 298 3.0 9.0 0.00 0.00 0.00 80 1014.6
20210922172105 80 301 3.0 9.0 0.00 0.00 0.00 80 1014.5
20210922171944 80 303 4.0 12.0 0.00 0.00 0.00 79 1014.5
20210922171851 80 274 3.0 12.0 0.00 0.00 0.00 79 1014.5
20210922171758 80 278 3.0 12.0 0.00 0.00 0.00 79 1014.6
20210922171645 80 306 3.0 12.0 0.00 0.00 0.00 80 1014.6
20210922171609 80 288 4.0 12.0 0.00 0.00 0.00 79 1014.7
20210922171447 80 332 4.0 12.0 0.00 0.00 0.00 79 1014.6
20210922171354 80 293 3.0 12.0 0.00 0.00 0.00 79 1014.6
20210922171241 80 275 4.0 12.0 0.00 0.00 0.00 80 1014.6
20210922171146 80 307 5.0 12.0 0.00 0.00 0.00 80 1014.6
20210922171050 80 38 4.0 11.0 0.00 0.00 0.00 79 1014.6
20210922170946 80 335 4.0 11.0 0.00 0.00 0.00 79 1014.6
20210922170856 80 307 4.0 11.0 0.00 0.00 0.00 79 1014.5
20210922170743 80 16 4.0 11.0 0.00 0.00 0.00 79 1014.6
20210922170639 80 284 3.0 8.0 0.00 0.00 0.00 79 1014.4
20210922170551 81 293 3.0 8.0 0.00 0.00 0.00 79 1014.5
20210922170447 81 278 4.0 8.0 0.00 0.00 0.00 78 1014.4
20210922170403 81 264 4.0 8.0 0.00 0.00 0.00 78 1014.5
20210922170251 81 36 4.0 8.0 0.00 0.00 0.00 77 1014.5
20210922170148 81 360 4.0 9.0 0.00 0.00 0.00 76 1014.5
20210922170101 81 308 5.0 9.0 0.00 0.00 0.00 76 1014.5
20210922165955 82 326 4.0 9.0 0.00 0.00 0.00 76 1014.5
20210922165846 82 312 3.0 9.0 0.00 0.00 0.00 77 1014.5
20210922165753 82 16 3.0 9.0 0.00 0.00 0.00 77 1014.5
20210922165650 82 360 3.0 9.0 0.00 0.00 0.00 78 1014.5
20210922165602 82 301 3.0 9.0 0.00 0.00 0.00 78 1014.5
20210922165458 82 325 4.0 9.0 0.00 0.00 0.00 77 1014.5
20210922165345 82 303 5.0 11.0 0.00 0.00 0.00 78 1014.5
20210922165256 82 360 5.0 11.0 0.00 0.00 0.00 77 1014.5
20210922165140 81 325 3.0 11.0 0.00 0.00 0.00 77 1014.4
20210922165105 81 309 3.0 11.0 0.00 0.00 0.00 77 1014.5
20210922164940 81 286 3.0 11.0 0.00 0.00 0.00 77 1014.5
20210922164847 81 295 4.0 11.0 0.00 0.00 0.00 77 1014.5
20210922164804 81 309 4.0 11.0 0.00 0.00 0.00 78 1014.5
20210922164651 81 297 6.0 11.0 0.00 0.00 0.00 76 1014.5
20210922164609 81 302 6.0 11.0 0.00 0.00 0.00 76 1014.5
20210922164444 82 309 4.0 10.0 0.00 0.00 0.00 78 1014.6
20210922164359 82 355 3.0 8.0 0.00 0.00 0.00 77 1014.5
20210922164250 82 329 4.0 8.0 0.00 0.00 0.00 77 1014.5
20210922164145 82 284 3.0 8.0 0.00 0.00 0.00 77 1014.5
20210922164051 82 346 2.0 8.0 0.00 0.00 0.00 78 1014.5
20210922163952 82 328 2.0 8.0 0.00 0.00 0.00 77 1014.5
20210922163858 82 298 2.0 8.0 0.00 0.00 0.00 77 1014.5
20210922163745 82 338 2.0 8.0 0.00 0.00 0.00 77 1014.5
20210922163645 82 355 2.0 8.0 0.00 0.00 0.00 77 1014.5
20210922163558 82 345 3.0 8.0 0.00 0.00 0.00 77 1014.5
20210922163452 82 312 3.0 8.0 0.00 0.00 0.00 76 1014.5
20210922163340 82 277 2.0 4.0 0.00 0.00 0.00 77 1014.5
20210922163246 82 292 2.0 4.0 0.00 0.00 0.00 77 1014.6
20210922163146 82 292 2.0 4.0 0.00 0.00 0.00 78 1014.6
20210922163100 81 323 2.0 5.0 0.00 0.00 0.00 79 1014.6
20210922162955 81 308 2.0 5.0 0.00 0.00 0.00 79 1014.6
20210922162841 81 321 2.0 8.0 0.00 0.00 0.00 79 1014.6
20210922162754 81 321 2.0 8.0 0.00 0.00 0.00 78 1014.6
20210922162645 81 329 3.0 8.0 0.00 0.00 0.00 78 1014.6
20210922162604 81 326 2.0 8.0 0.00 0.00 0.00 78 1014.7
20210922162505 81 301 2.0 8.0 0.00 0.00 0.00 78 1014.7
20210922162353 82 5 3.0 8.0 0.00 0.00 0.00 77 1014.7
20210922162258 82 302 3.0 8.0 0.00 0.00 0.00 77 1014.7
20210922162139 82 319 3.0 8.0 0.00 0.00 0.00 77 1014.7
20210922162113 82 335 3.0 8.0 0.00 0.00 0.00 77 1014.7
20210922161941 82 304 2.0 6.0 0.00 0.00 0.00 78 1014.7
20210922161854 82 331 2.0 6.0 0.00 0.00 0.00 77 1014.6
20210922161741 82 287 2.0 6.0 0.00 0.00 0.00 77 1014.6
20210922161639 82 317 2.0 6.0 0.00 0.00 0.00 77 1014.6
20210922161556 82 5 2.0 11.0 0.00 0.00 0.00 77 1014.6
20210922161450 82 303 3.0 11.0 0.00 0.00 0.00 77 1014.7
20210922161356 82 334 2.0 11.0 0.00 0.00 0.00 77 1014.6
20210922161242 81 10 2.0 11.0 0.00 0.00 0.00 76 1014.7
20210922161147 81 323 3.0 11.0 0.00 0.00 0.00 77 1014.8
20210922161055 82 303 3.0 11.0 0.00 0.00 0.00 77 1014.8
20210922160950 82 309 3.0 11.0 0.00 0.00 0.00 77 1014.8
20210922160856 82 339 4.0 11.0 0.00 0.00 0.00 76 1014.8
20210922160743 82 286 4.0 11.0 0.00 0.00 0.00 76 1014.8
20210922160647 82 5 3.0 9.0 0.00 0.00 0.00 78 1014.7
20210922160553 82 348 2.0 6.0 0.00 0.00 0.00 78 1014.8
20210922160458 82 331 2.0 6.0 0.00 0.00 0.00 78 1014.8
20210922160345 81 306 2.0 6.0 0.00 0.00 0.00 78 1014.8
20210922160250 81 334 3.0 8.0 0.00 0.00 0.00 77 1014.8
20210922160148 81 294 3.0 8.0 0.00 0.00 0.00 77 1014.8
20210922160101 81 299 2.0 8.0 0.00 0.00 0.00 78 1014.8
20210922155940 81 289 3.0 8.0 0.00 0.01 0.00 77 1014.9
20210922155847 81 321 2.0 8.0 0.00 0.01 0.00 78 1014.9
20210922155754 81 313 2.0 8.0 0.00 0.01 0.00 78 1014.8
20210922155640 81 292 2.0 8.0 0.00 0.01 0.00 78 1014.9
20210922155603 81 292 3.0 8.0 0.00 0.01 0.00 78 1014.9
20210922155442 81 296 4.0 8.0 0.00 0.01 0.00 79 1014.9
20210922155348 81 261 3.0 8.0 0.00 0.01 0.00 78 1014.9
20210922155254 81 316 2.0 5.0 0.00 0.01 0.00 79 1014.9
20210922155140 81 301 2.0 5.0 0.00 0.01 0.00 79 1014.9
20210922155103 81 296 2.0 5.0 0.00 0.01 0.00 79 1014.9
20210922154958 81 280 2.0 8.0 0.00 0.01 0.00 80 1014.9
20210922154849 81 267 2.0 8.0 0.00 0.01 0.00 79 1014.9
20210922154802 81 273 2.0 8.0 0.00 0.01 0.00 79 1014.8
20210922154650 81 271 2.0 8.0 0.00 0.01 0.00 79 1014.8
20210922154605 81 295 2.0 8.0 0.00 0.01 0.00 79 1014.9
20210922154440 81 320 3.0 8.0 0.00 0.01 0.00 79 1014.9
20210922154349 81 305 3.0 8.0 0.00 0.01 0.00 78 1014.9
20210922154302 81 5 3.0 8.0 0.00 0.01 0.00 78 1014.8
20210922154149 81 350 3.0 8.0 0.00 0.01 0.00 77 1014.8
20210922154107 81 310 3.0 8.0 0.00 0.01 0.00 78 1014.9
20210922153941 81 338 2.0 3.0 0.00 0.01 0.00 78 1014.8
20210922153854 82 287 2.0 3.0 0.00 0.01 0.00 78 1014.8
20210922153744 82 298 1.0 4.0 0.00 0.01 0.00 80 1014.9
20210922153643 81 321 1.0 4.0 0.00 0.01 0.00 79 1014.8
20210922153615 81 326 1.0 4.0 0.00 0.01 0.00 79 1014.9
20210922153450 81 327 1.0 4.0 0.00 0.01 0.00 80 1014.8
20210922153355 81 313 1.0 4.0 0.00 0.01 0.00 79 1014.9
20210922153246 81 316 1.0 4.0 0.00 0.01 0.00 79 1014.8
20210922153143 81 315 1.0 4.0 0.00 0.01 0.00 80 1014.9
20210922153055 81 315 2.0 4.0 0.00 0.01 0.00 79 1014.8
20210922152949 81 315 2.0 4.0 0.00 0.01 0.00 79 1014.9
20210922152855 81 34 2.0 4.0 0.00 0.01 0.00 79 1014.8
20210922152745 80 318 2.0 3.0 0.00 0.01 0.00 81 1014.9
20210922152643 80 306 2.0 3.0 0.00 0.01 0.00 81 1015.0
20210922152556 80 329 1.0 3.0 0.00 0.01 0.00 81 1015.0
20210922152451 80 338 2.0 3.0 0.00 0.01 0.00 81 1014.9
20210922152404 80 300 2.0 3.0 0.00 0.01 0.00 81 1014.9
20210922152251 80 301 2.0 6.0 0.00 0.01 0.00 81 1014.9
20210922152141 80 286 2.0 6.0 0.00 0.01 0.00 81 1014.8
20210922152058 80 288 2.0 6.0 0.00 0.01 0.00 81 1014.9
20210922151952 80 261 2.0 6.0 0.00 0.01 0.00 81 1014.8
20210922151839 80 347 1.0 6.0 0.00 0.01 0.00 81 1014.9
20210922151752 80 348 1.0 6.0 0.00 0.01 0.00 82 1015.0
20210922151643 80 296 2.0 6.0 0.00 0.01 0.00 82 1015.0
20210922151601 80 328 2.0 6.0 0.00 0.01 0.00 82 1015.0
20210922151502 80 337 2.0 6.0 0.00 0.01 0.00 82 1015.1
20210922151349 80 317 1.0 5.0 0.00 0.01 0.00 82 1015.0
20210922151256 80 338 1.0 5.0 0.00 0.01 0.00 82 1015.1
20210922151147 80 346 1.0 5.0 0.00 0.01 0.00 83 1015.1
20210922151111 80 346 1.0 5.0 0.00 0.01 0.00 83 1015.1
20210922150946 80 322 1.0 6.0 0.00 0.01 0.00 84 1015.1
20210922150852 80 323 2.0 6.0 0.00 0.01 0.00 84 1015.1
20210922150739 79 323 3.0 6.0 0.00 0.01 0.00 84 1015.2
20210922150641 79 336 2.0 6.0 0.00 0.01 0.00 84 1015.0
20210922150554 79 32 1.0 6.0 0.00 0.01 0.00 85 1015.2
20210922150448 79 321 1.0 6.0 0.00 0.01 0.00 84 1015.1
20210922150354 79 322 1.0 6.0 0.00 0.01 0.00 84 1015.2
20210922150240 79 15 2.0 6.0 0.00 0.01 0.00 84 1015.1
20210922150146 79 15 2.0 6.0 0.00 0.01 0.00 83 1015.1
20210922150054 79 300 2.0 5.0 0.00 0.01 0.00 83 1015.1
20210922145949 80 294 2.0 5.0 0.00 0.01 0.00 83 1015.2
20210922145902 80 290 2.0 5.0 0.00 0.01 0.00 83 1015.1
20210922145743 80 296 2.0 5.0 0.00 0.01 0.00 82 1015.1
20210922145647 80 326 1.0 5.0 0.00 0.01 0.00 83 1015.1
20210922145558 80 327 2.0 5.0 0.00 0.01 0.00 83 1015.1
20210922145500 80 338 1.0 5.0 0.00 0.01 0.00 83 1015.1
20210922145347 80 350 2.0 5.0 0.00 0.01 0.00 83 1015.1
20210922145254 80 355 2.0 5.0 0.00 0.01 0.00 82 1015.0
20210922145140 80 351 2.0 4.0 0.00 0.01 0.00 82 1015.0
20210922145057 80 294 2.0 4.0 0.00 0.01 0.00 82 1015.0
20210922145003 80 307 2.0 4.0 0.00 0.01 0.00 82 1015.0
20210922144850 80 296 2.0 4.0 0.00 0.01 0.00 83 1015.0
20210922144757 80 349 2.0 4.0 0.00 0.01 0.00 82 1014.9
20210922144643 80 301 2.0 4.0 0.00 0.01 0.00 82 1015.0
20210922144606 80 323 2.0 4.0 0.00 0.01 0.00 82 1014.9
20210922144446 81 282 2.0 4.0 0.00 0.01 0.00 82 1014.9
20210922144352 80 302 2.0 4.0 0.00 0.01 0.00 83 1014.9
20210922144257 80 317 2.0 3.0 0.00 0.01 0.00 83 1014.9
20210922144144 80 13 1.0 2.0 0.00 0.01 0.00 84 1014.9
20210922144107 80 338 1.0 4.0 0.00 0.01 0.00 83 1014.9
20210922143945 80 338 1.0 4.0 0.00 0.01 0.00 83 1014.9
20210922143852 80 338 1.0 4.0 0.00 0.01 0.00 83 1014.9
20210922143758 80 344 0.0 4.0 0.00 0.01 0.00 83 1014.9
20210922143643 80 344 0.0 4.0 0.00 0.01 0.00 84 1014.9
20210922143607 80 344 0.0 4.0 0.00 0.01 0.00 84 1014.8
20210922143441 80 344 1.0 4.0 0.00 0.01 0.00 83 1014.8
20210922143352 80 344 2.0 4.0 0.00 0.01 0.00 83 1014.8
20210922143305 80 346 2.0 4.0 0.00 0.01 0.00 83 1014.8
20210922143142 80 346 1.0 4.0 0.00 0.01 0.00 84 1014.8
20210922143105 79 5 1.0 4.0 0.00 0.01 0.00 84 1014.9
20210922142939 79 5 1.0 4.0 0.00 0.01 0.00 84 1014.8
20210922142849 79 5 2.0 4.0 0.00 0.01 0.00 83 1014.8
20210922142802 79 13 2.0 4.0 0.00 0.01 0.00 84 1014.8
20210922142648 79 321 2.0 4.0 0.00 0.01 0.00 84 1014.8
20210922142606 79 329 1.0 2.0 0.00 0.01 0.00 84 1014.8
20210922142441 79 329 0.0 2.0 0.00 0.01 0.00 83 1014.8
20210922142354 79 350 0.0 2.0 0.00 0.01 0.00 84 1014.8
20210922142244 79 336 0.0 3.0 0.00 0.01 0.00 84 1014.9
20210922142140 79 335 0.0 3.0 0.00 0.01 0.00 85 1014.9
20210922142114 79 336 0.0 3.0 0.00 0.01 0.00 85 1014.8
20210922141950 79 336 0.0 3.0 0.00 0.01 0.00 86 1014.9
20210922141855 79 336 0.0 3.0 0.00 0.01 0.00 86 1014.9
20210922141745 79 336 1.0 3.0 0.00 0.01 0.00 85 1014.9
20210922141641 78 336 1.0 3.0 0.00 0.01 0.00 85 1014.9
20210922141554 78 336 1.0 3.0 0.00 0.01 0.00 85 1014.8
20210922141448 78 336 1.0 3.0 0.00 0.01 0.00 85 1014.9
20210922141354 78 336 1.0 3.0 0.00 0.01 0.00 85 1014.9
20210922141245 78 323 2.0 3.0 0.00 0.01 0.00 85 1014.8
20210922141143 78 323 1.0 3.0 0.00 0.01 0.00 85 1014.9
20210922141057 78 321 1.0 2.0 0.00 0.01 0.00 85 1014.9
20210922140951 78 317 1.0 3.0 0.00 0.01 0.00 86 1014.8
20210922140904 78 317 1.0 5.0 0.00 0.01 0.00 86 1014.9
20210922140743 78 314 1.0 5.0 0.00 0.01 0.00 86 1014.9
20210922140641 78 313 1.0 5.0 0.00 0.01 0.00 86 1014.8
20210922140557 78 313 1.0 5.0 0.00 0.01 0.00 86 1014.9
20210922140451 78 311 1.0 5.0 0.00 0.01 0.00 86 1014.9
20210922140404 78 310 1.0 5.0 0.00 0.01 0.00 87 1014.9
20210922140250 78 311 2.0 5.0 0.00 0.01 0.00 86 1014.9
20210922140141 78 342 2.0 5.0 0.00 0.01 0.00 87 1014.9
20210922140058 78 310 2.0 5.0 0.00 0.01 0.00 87 1015.0
20210922140000 78 276 2.0 5.0 0.00 0.10 0.00 87 1014.9
20210922135846 78 308 2.0 3.0 0.00 0.10 0.00 87 1014.9
20210922135753 78 309 2.0 3.0 0.00 0.10 0.00 87 1015.0
20210922135644 78 297 2.0 3.0 0.00 0.10 0.00 87 1014.8
20210922135608 78 296 1.0 3.0 0.00 0.10 0.00 87 1014.8
20210922135445 78 306 1.0 3.0 0.00 0.10 0.00 87 1014.8
20210922135351 78 306 1.0 3.0 0.00 0.10 0.00 88 1014.7
20210922135258 77 306 1.0 3.0 0.00 0.10 0.00 88 1014.7
20210922135138 77 334 1.0 3.0 0.00 0.10 0.00 88 1014.7
20210922135111 77 334 1.0 3.0 0.00 0.10 0.00 88 1014.7
20210922134946 77 351 1.0 5.0 0.00 0.10 0.00 88 1014.6
20210922134851 77 351 1.0 5.0 0.00 0.10 0.00 88 1014.7
20210922134758 77 328 2.0 5.0 0.00 0.10 0.00 88 1014.7
20210922134645 77 327 1.0 5.0 0.00 0.10 0.00 89 1014.6
20210922134553 77 346 1.0 5.0 0.00 0.10 0.00 89 1014.7
20210922134446 77 348 0.0 5.0 0.00 0.10 0.00 89 1014.6
20210922134353 77 348 1.0 5.0 0.00 0.10 0.00 89 1014.6
20210922134239 77 348 2.0 5.0 0.00 0.10 0.00 89 1014.7
20210922134153 77 328 2.0 5.0 0.00 0.10 0.00 89 1014.6
20210922134053 77 344 2.0 5.0 0.00 0.10 0.00 89 1014.6
20210922133947 76 355 2.0 5.0 0.00 0.10 0.00 89 1014.5
20210922133900 76 355 2.0 5.0 0.00 0.10 0.00 89 1014.6
20210922133746 76 303 2.0 5.0 0.00 0.10 0.00 89 1014.5
20210922133644 76 40 1.0 5.0 0.00 0.10 0.00 90 1014.5
20210922133617 76 330 1.0 5.0 0.00 0.10 0.00 90 1014.6
20210922133455 76 355 1.0 5.0 0.00 0.10 0.00 90 1014.5
20210922133341 76 24 1.0 5.0 0.00 0.10 0.00 90 1014.5
20210922133248 76 24 2.0 5.0 0.00 0.10 0.00 90 1014.5
20210922133146 76 21 2.0 5.0 0.00 0.10 0.00 90 1014.6
20210922133058 76 355 3.0 5.0 0.00 0.10 0.00 90 1014.5
20210922132956 76 10 2.0 4.0 0.00 0.10 0.00 90 1014.6
20210922132843 76 347 1.0 4.0 0.00 0.10 0.00 91 1014.6
20210922132749 76 360 1.0 5.0 0.00 0.10 0.00 92 1014.6
20210922132648 76 9 1.0 5.0 0.00 0.10 0.00 92 1014.6
20210922132601 76 9 2.0 5.0 0.00 0.10 0.00 92 1014.6
20210922132441 76 9 2.0 5.0 0.00 0.10 0.00 92 1014.6
20210922132347 75 21 2.0 5.0 0.00 0.10 0.00 92 1014.5
20210922132300 75 22 1.0 5.0 0.00 0.10 0.00 92 1014.6
20210922132146 75 5 1.0 5.0 0.00 0.10 0.00 92 1014.4
20210922132103 75 5 2.0 5.0 0.00 0.10 0.00 92 1014.5
20210922132004 75 17 2.0 5.0 0.00 0.10 0.00 93 1014.5
20210922131855 75 355 2.0 5.0 0.00 0.10 0.00 93 1014.5
20210922131801 75 341 1.0 5.0 0.00 0.10 0.00 93 1014.5
20210922131639 75 340 2.0 5.0 0.00 0.10 0.00 93 1014.5
20210922131606 75 340 2.0 5.0 0.00 0.10 0.00 93 1014.5
20210922131441 75 349 3.0 5.0 0.00 0.10 0.00 93 1014.5
20210922131358 75 350 2.0 5.0 0.00 0.10 0.00 93 1014.5
20210922131244 75 296 3.0 5.0 0.00 0.10 0.00 94 1014.5
20210922131140 75 340 3.0 5.0 0.00 0.10 0.00 94 1014.5
20210922131113 75 344 2.0 5.0 0.00 0.10 0.00 94 1014.5
20210922130948 75 30 1.0 3.0 0.00 0.10 0.00 94 1014.5
20210922130854 75 330 1.0 3.0 0.00 0.10 0.00 94 1014.5
20210922130744 75 330 1.0 3.0 0.00 0.10 0.00 95 1014.5
20210922130641 75 331 1.0 4.0 0.00 0.10 0.00 95 1014.5
20210922130554 74 340 1.0 4.0 0.00 0.10 0.00 95 1014.5
20210922130449 74 312 1.0 4.0 0.00 0.10 0.00 95 1014.5
20210922130356 74 312 2.0 4.0 0.00 0.10 0.00 95 1014.5
20210922130247 74 312 2.0 4.0 0.00 0.10 0.00 95 1014.5
20210922130144 74 351 2.0 4.0 0.00 0.10 0.00 95 1014.5
20210922130057 74 13 2.0 4.0 0.00 0.10 0.00 95 1014.5
20210922125952 74 327 2.0 4.0 0.00 0.10 0.00 96 1014.5
20210922125839 74 327 2.0 4.0 0.00 0.10 0.00 96 1014.6
20210922125756 74 336 1.0 4.0 0.00 0.10 0.00 96 1014.5
20210922125644 74 338 0.0 4.0 0.00 0.10 0.00 96 1014.5
20210922125601 74 321 0.0 4.0 0.00 0.10 0.00 96 1014.5
20210922125455 74 331 0.0 4.0 0.00 0.10 0.00 96 1014.5
20210922125342 74 332 1.0 4.0 0.00 0.10 0.00 96 1014.5
20210922125255 74 331 2.0 4.0 0.00 0.10 0.00 96 1014.5
20210922125146 74 315 1.0 4.0 0.00 0.10 0.00 96 1014.5
20210922125102 74 319 1.0 4.0 0.00 0.10 0.00 97 1014.5
20210922125004 73 319 0.0 4.0 0.00 0.10 0.00 97 1014.4
20210922124850 73 319 1.0 4.0 0.00 0.10 0.00 97 1014.5
20210922124757 73 319 1.0 4.0 0.00 0.10 0.00 97 1014.4
20210922124639 73 319 1.0 4.0 0.00 0.10 0.00 97 1014.5
20210922124613 73 313 1.0 4.0 0.00 0.10 0.00 97 1014.5
20210922124448 73 333 1.0 4.0 0.00 0.10 0.00 97 1014.4
20210922124354 73 348 0.0 4.0 0.00 0.10 0.00 97 1014.5
20210922124241 73 355 0.0 0.0 0.00 0.10 0.00 97 1014.4
20210922124142 73 355 0.0 0.0 0.00 0.10 0.00 97 1014.5
20210922124115 73 355 0.0 0.0 0.00 0.10 0.00 97 1014.4
20210922123950 73 5 0.0 0.0 0.00 0.10 0.00 97 1014.5
20210922123857 73 5 0.0 1.0 0.00 0.10 0.00 97 1014.6
20210922123744 73 5 0.0 1.0 0.00 0.10 0.00 97 1014.5
20210922123646 73 5 0.0 1.0 0.00 0.10 0.00 97 1014.4
20210922123558 73 5 0.0 1.0 0.00 0.10 0.00 97 1014.5
20210922123454 73 5 0.0 1.0 0.00 0.10 0.00 97 1014.5
20210922123341 73 5 0.0 1.0 0.00 0.10 0.00 97 1014.6
20210922123247 73 5 0.0 1.0 0.00 0.10 0.00 97 1014.7
20210922123144 73 5 0.0 1.0 0.00 0.10 0.00 97 1014.6
20210922123100 73 5 0.0 1.0 0.00 0.10 0.00 97 1014.6
20210922122955 73 5 0.0 2.0 0.00 0.10 0.00 97 1014.6
20210922122840 73 5 0.0 2.0 0.00 0.10 0.00 97 1014.4
20210922122753 73 5 0.0 2.0 0.00 0.10 0.00 97 1014.5
20210922122641 73 5 0.0 2.0 0.00 0.10 0.00 97 1014.5
20210922122602 73 5 0.0 2.0 0.00 0.10 0.00 97 1014.5
20210922122504 73 5 0.0 2.0 0.00 0.10 0.00 97 1014.6
20210922122350 73 5 0.0 5.0 0.00 0.10 0.00 97 1014.5
20210922122258 73 5 1.0 5.0 0.00 0.10 0.00 97 1014.6
20210922122142 73 5 1.0 5.0 0.00 0.10 0.00 97 1014.6
20210922122100 73 5 0.0 5.0 0.00 0.10 0.00 97 1014.6
20210922121939 73 5 0.0 5.0 0.00 0.10 0.00 97 1014.5
20210922121852 73 5 0.0 5.0 0.00 0.10 0.00 97 1014.6
20210922121739 73 5 0.0 5.0 0.00 0.10 0.00 97 1014.6
20210922121646 73 5 1.0 5.0 0.00 0.10 0.00 97 1014.5
20210922121610 72 5 1.0 5.0 0.00 0.10 0.00 97 1014.6
20210922121449 72 5 1.0 5.0 0.00 0.10 0.00 97 1014.6
20210922121355 72 324 0.0 1.0 0.00 0.10 0.00 97 1014.5
20210922121242 72 324 0.0 1.0 0.00 0.10 0.00 97 1014.5
20210922121140 72 324 0.0 2.0 0.00 0.10 0.00 97 1014.6
20210922121053 72 324 0.0 2.0 0.00 0.10 0.00 97 1014.5
20210922120952 72 323 0.0 2.0 0.00 0.10 0.00 97 1014.5
20210922120839 72 323 0.0 2.0 0.00 0.10 0.00 97 1014.5
20210922120746 72 324 0.0 2.0 0.00 0.10 0.00 97 1014.5
20210922120644 72 312 0.0 2.0 0.00 0.10 0.00 97 1014.5
20210922120556 72 312 1.0 2.0 0.00 0.10 0.00 97 1014.6
20210922120451 72 312 1.0 2.0 0.00 0.10 0.00 97 1014.5
20210922120342 72 312 0.0 2.0 0.00 0.10 0.00 97 1014.5
20210922120254 72 312 0.0 1.0 0.00 0.10 0.00 97 1014.6
20210922120142 72 308 0.0 0.0 0.00 0.10 0.00 97 1014.5
20210922120059 72 308 0.0 0.0 0.00 0.10 0.00 97 1014.4
20210922120001 72 308 0.0 0.0 0.00 0.11 0.00 97 1014.4
20210922115851 72 308 0.0 2.0 0.00 0.11 0.00 97 1014.4
20210922115757 72 308 0.0 2.0 0.00 0.11 0.00 97 1014.4
20210922115644 72 308 0.0 2.0 0.00 0.11 0.00 97 1014.3
20210922115601 72 308 0.0 2.0 0.00 0.11 0.00 97 1014.3
20210922115502 72 308 0.0 2.0 0.00 0.11 0.00 97 1014.2
20210922115353 72 308 0.0 2.0 0.00 0.11 0.00 97 1014.1
20210922115239 72 308 0.0 2.0 0.00 0.11 0.00 97 1014.2
20210922115145 72 308 0.0 2.0 0.00 0.11 0.00 97 1014.2
20210922115110 72 308 0.0 2.0 0.00 0.11 0.00 97 1014.2
20210922114944 72 308 1.0 2.0 0.00 0.11 0.00 97 1014.2
20210922114851 72 12 0.0 2.0 0.00 0.11 0.00 97 1014.2
20210922114741 72 80 0.0 0.0 0.00 0.11 0.00 97 1014.2
20210922114647 72 80 0.0 0.0 0.00 0.11 0.00 97 1014.2
20210922114611 72 80 0.0 0.0 0.00 0.11 0.00 97 1014.2
20210922114446 72 80 0.0 0.0 0.00 0.11 0.00 97 1014.2
20210922114352 72 80 0.0 1.0 0.00 0.11 0.00 97 1014.2
20210922114243 72 80 0.0 1.0 0.00 0.11 0.00 97 1014.1
20210922114140 72 80 0.0 1.0 0.00 0.11 0.00 97 1014.1
20210922114053 72 80 0.0 1.0 0.00 0.11 0.00 97 1014.1
20210922113947 72 80 0.0 1.0 0.00 0.11 0.00 97 1014.1
20210922113853 72 80 0.0 1.0 0.00 0.11 0.00 97 1014.0
20210922113744 72 80 0.0 1.0 0.00 0.11 0.00 97 1014.0
20210922113641 72 80 0.0 1.0 0.00 0.11 0.00 97 1014.0
20210922113552 72 80 0.0 1.0 0.00 0.11 0.00 97 1014.1
20210922113448 72 80 1.0 1.0 0.00 0.11 0.00 97 1014.2
20210922113401 72 80 1.0 1.0 0.00 0.11 0.00 97 1014.2
20210922113248 72 88 0.0 1.0 0.00 0.11 0.00 97 1014.1
20210922113149 72 88 0.0 0.0 0.00 0.11 0.00 97 1014.1
20210922113102 72 88 0.0 0.0 0.00 0.11 0.00 97 1014.1
20210922112957 72 88 0.0 0.0 0.00 0.11 0.00 97 1014.0
20210922112850 72 88 0.0 0.0 0.00 0.11 0.00 97 1014.0
20210922112751 72 88 0.0 0.0 0.00 0.11 0.00 97 1014.0
20210922112641 72 88 0.0 0.0 0.00 0.11 0.00 97 1013.9
20210922112604 72 88 0.0 0.0 0.00 0.11 0.00 97 1013.9
20210922112439 72 88 0.0 0.0 0.00 0.11 0.00 97 1014.0
20210922112346 72 88 0.0 0.0 0.00 0.11 0.00 97 1014.0
20210922112254 72 88 0.0 0.0 0.00 0.11 0.00 97 1014.0
20210922112145 72 88 0.0 0.0 0.00 0.11 0.00 97 1014.1
20210922112108 72 88 0.0 0.0 0.00 0.11 0.00 97 1014.0
20210922111944 72 88 0.0 0.0 0.00 0.11 0.00 97 1014.0
20210922111850 72 88 0.0 0.0 0.00 0.11 0.00 97 1014.0
20210922111758 72 88 0.0 0.0 0.00 0.11 0.00 97 1014.0
20210922111640 72 88 0.0 0.0 0.00 0.11 0.00 97 1014.0
20210922111552 72 88 0.0 0.0 0.00 0.11 0.00 97 1014.0
20210922111446 72 88 0.0 0.0 0.00 0.11 0.00 97 1014.0
20210922111402 72 88 0.0 0.0 0.00 0.11 0.00 97 1014.0
20210922111242 72 88 0.0 0.0 0.00 0.11 0.00 97 1014.0
20210922111145 72 88 0.0 0.0 0.00 0.11 0.00 97 1014.0
20210922111056 72 88 0.0 0.0 0.00 0.11 0.00 97 1014.0
20210922110957 72 88 0.0 0.0 0.00 0.11 0.00 97 1013.9
20210922110843 72 88 0.0 0.0 0.00 0.11 0.00 97 1013.9
20210922110751 72 88 0.0 0.0 0.00 0.11 0.00 97 1013.9
20210922110648 72 88 0.0 0.0 0.00 0.11 0.00 97 1014.0
20210922110604 72 88 0.0 0.0 0.00 0.11 0.00 97 1013.9
20210922110440 72 88 0.0 0.0 0.00 0.11 0.00 97 1014.0
20210922110346 72 88 0.0 0.0 0.00 0.11 0.00 97 1014.0
20210922110252 72 88 0.0 0.0 0.00 0.11 0.00 97 1014.1
20210922110139 73 88 0.0 0.0 0.00 0.11 0.00 97 1014.0
20210922110102 73 88 0.0 0.0 0.00 0.11 0.00 97 1014.0
20210922105941 72 88 0.0 0.0 0.00 0.11 0.00 97 1014.0
20210922105848 72 88 0.0 0.0 0.00 0.11 0.00 97 1014.0
20210922105755 73 88 0.0 0.0 0.00 0.11 0.00 97 1014.0
20210922105642 72 88 0.0 0.0 0.00 0.11 0.00 97 1014.0
20210922105607 73 88 0.0 0.0 0.00 0.11 0.00 97 1014.0
20210922105446 73 88 0.0 0.0 0.00 0.11 0.00 97 1014.1
20210922105353 73 88 0.0 0.0 0.00 0.11 0.00 97 1014.0
20210922105239 72 88 0.0 0.0 0.00 0.11 0.00 97 1014.0
20210922105146 73 88 0.0 1.0 0.00 0.11 0.00 97 1014.1
20210922105110 73 88 0.0 1.0 0.00 0.11 0.00 97 1014.0
20210922104950 73 88 0.0 1.0 0.00 0.11 0.00 97 1014.0
20210922104856 73 88 0.0 1.0 0.00 0.11 0.00 97 1014.0
20210922104743 73 88 0.0 1.0 0.00 0.11 0.00 97 1014.1
20210922104640 73 88 0.0 1.0 0.00 0.11 0.00 97 1014.1
20210922104553 73 88 0.0 1.0 0.00 0.11 0.00 97 1014.0
20210922104448 73 88 0.0 1.0 0.00 0.11 0.00 97 1014.1
20210922104339 73 88 0.0 1.0 0.00 0.11 0.00 97 1014.1
20210922104252 73 88 0.0 1.0 0.00 0.11 0.00 97 1014.0
20210922104139 73 88 0.0 1.0 0.00 0.11 0.00 97 1013.9
20210922104057 73 88 0.0 1.0 0.00 0.11 0.00 97 1013.9
20210922103958 73 88 0.0 1.0 0.00 0.11 0.00 97 1014.0
20210922103849 73 88 0.0 0.0 0.00 0.11 0.00 97 1014.0
20210922103756 73 88 0.0 0.0 0.00 0.11 0.00 97 1014.0
20210922103643 73 88 0.0 0.0 0.00 0.11 0.00 97 1013.8
20210922103608 73 88 0.0 0.0 0.00 0.11 0.00 97 1013.9
20210922103445 73 88 0.0 0.0 0.00 0.11 0.00 97 1013.8
20210922103354 73 88 0.0 0.0 0.00 0.11 0.00 97 1013.8
20210922103241 73 88 0.0 0.0 0.00 0.11 0.00 97 1013.8
20210922103139 73 88 0.0 0.0 0.00 0.11 0.00 97 1013.8
20210922103052 73 88 0.0 0.0 0.00 0.11 0.00 97 1013.8
20210922102947 73 88 0.0 0.0 0.00 0.11 0.00 97 1013.8
20210922102854 73 88 0.0 0.0 0.00 0.11 0.00 97 1013.8
20210922102744 73 88 0.0 0.0 0.00 0.11 0.00 97 1013.8
20210922102643 73 88 0.0 0.0 0.00 0.11 0.00 97 1013.8
20210922102556 73 88 0.0 0.0 0.00 0.11 0.00 97 1013.8
20210922102451 73 88 0.0 0.0 0.00 0.11 0.00 97 1013.9
20210922102404 73 88 0.0 0.0 0.00 0.11 0.00 97 1013.8
20210922102255 73 88 0.0 0.0 0.00 0.11 0.00 97 1013.8
20210922102143 73 88 0.0 0.0 0.00 0.11 0.00 97 1013.8
20210922102100 73 88 0.0 0.0 0.00 0.11 0.00 97 1013.7
20210922102002 73 88 0.0 0.0 0.00 0.11 0.00 97 1013.8
20210922101842 73 88 0.0 0.0 0.00 0.11 0.00 97 1013.8
20210922101759 73 88 0.0 0.0 0.00 0.11 0.00 97 1013.8
20210922101646 73 88 0.0 0.0 0.00 0.11 0.00 97 1013.8
20210922101605 73 88 0.0 0.0 0.00 0.11 0.00 97 1013.7
20210922101440 73 88 0.0 0.0 0.00 0.11 0.00 97 1013.8
20210922101353 73 88 0.0 0.0 0.00 0.11 0.00 97 1013.8
20210922101244 73 88 0.0 0.0 0.00 0.11 0.00 97 1013.7
20210922101142 73 88 0.0 0.0 0.00 0.11 0.00 97 1013.8
20210922101115 73 88 0.0 0.0 0.00 0.11 0.00 97 1013.8
20210922100950 73 88 0.0 0.0 0.00 0.11 0.00 97 1013.8
20210922100857 73 88 0.0 0.0 0.00 0.11 0.00 97 1013.7
20210922100743 73 88 0.0 1.0 0.00 0.11 0.00 97 1013.8
20210922100645 73 88 0.0 1.0 0.00 0.11 0.00 97 1013.8
20210922100557 73 88 0.0 1.0 0.00 0.11 0.00 97 1013.8
20210922100453 73 88 0.0 1.0 0.00 0.11 0.00 97 1013.8
20210922100340 73 88 0.0 1.0 0.00 0.11 0.00 97 1013.8
20210922100247 73 88 0.0 1.0 0.00 0.11 0.00 97 1013.8
20210922100147 73 88 0.0 1.0 0.00 0.11 0.00 97 1013.9
20210922100058 73 88 0.0 1.0 0.00 0.11 0.00 97 1013.9
20210922095954 73 88 0.0 1.0 0.00 0.11 0.00 97 1013.9
20210922095841 73 88 0.0 1.0 0.00 0.11 0.00 97 1013.9
20210922095754 73 88 0.0 1.0 0.00 0.11 0.00 97 1013.9
20210922095644 73 88 0.0 1.0 0.00 0.11 0.00 97 1013.9
20210922095602 73 88 0.0 1.0 0.00 0.11 0.00 97 1013.8
20210922095504 73 89 0.0 0.0 0.00 0.11 0.00 97 1013.8
20210922095344 73 89 0.0 0.0 0.00 0.11 0.00 97 1013.8
20210922095254 73 89 0.0 0.0 0.00 0.11 0.00 97 1013.8
20210922095140 73 89 0.0 0.0 0.00 0.11 0.00 97 1013.8
20210922095103 73 89 0.0 0.0 0.00 0.11 0.00 97 1013.8
20210922095004 73 89 0.0 1.0 0.00 0.11 0.00 97 1013.8
20210922094851 73 89 0.0 1.0 0.00 0.11 0.00 97 1013.8
20210922094759 73 89 0.0 2.0 0.00 0.11 0.00 97 1013.8
20210922094645 73 89 0.0 2.0 0.00 0.11 0.00 97 1013.7
20210922094612 73 89 0.0 2.0 0.00 0.11 0.00 97 1013.8
20210922094448 73 89 0.0 2.0 0.00 0.11 0.00 97 1013.8
20210922094354 73 89 0.0 2.0 0.00 0.11 0.00 97 1013.8
20210922094241 73 89 0.0 2.0 0.00 0.11 0.00 97 1013.8
20210922094146 73 89 0.0 2.0 0.00 0.11 0.00 97 1013.9
20210922094111 73 89 0.0 2.0 0.00 0.11 0.00 97 1013.9
20210922093949 73 90 0.0 2.0 0.00 0.11 0.00 97 1013.9
20210922093856 73 90 0.0 2.0 0.00 0.11 0.00 97 1013.9
20210922093743 73 102 0.0 1.0 0.00 0.11 0.00 97 1013.9
20210922093639 73 102 0.0 1.0 0.00 0.11 0.00 97 1013.9
20210922093553 73 102 0.0 1.0 0.00 0.11 0.00 97 1013.9
20210922093452 73 102 0.0 1.0 0.00 0.11 0.00 97 1013.8
20210922093339 73 103 0.0 0.0 0.00 0.11 0.00 97 1013.9
20210922093246 73 103 0.0 0.0 0.00 0.11 0.00 97 1013.9
20210922093143 73 103 0.0 0.0 0.00 0.11 0.00 97 1013.9
20210922093057 73 103 0.0 2.0 0.00 0.11 0.00 97 1013.9
20210922092955 73 103 0.0 2.0 0.00 0.11 0.00 97 1013.9
20210922092842 73 103 0.0 2.0 0.00 0.11 0.00 97 1013.8
20210922092755 73 103 0.0 2.0 0.00 0.11 0.00 97 1013.9
20210922092642 73 103 0.0 2.0 0.00 0.11 0.00 97 1013.9
20210922092601 73 103 0.0 2.0 0.00 0.11 0.00 97 1013.9
20210922092440 73 103 0.0 2.0 0.00 0.11 0.00 97 1014.0
20210922092353 73 103 0.0 2.0 0.00 0.11 0.00 97 1013.9
20210922092240 73 102 1.0 2.0 0.00 0.11 0.00 97 1013.9
20210922092147 73 102 0.0 2.0 0.00 0.11 0.00 97 1013.9
20210922092103 73 153 0.0 2.0 0.00 0.11 0.00 97 1014.0
20210922092004 73 153 0.0 2.0 0.00 0.11 0.00 97 1014.0
20210922091855 73 153 0.0 2.0 0.00 0.11 0.00 97 1014.0
20210922091742 73 153 0.0 2.0 0.00 0.11 0.00 97 1014.0
20210922091639 73 153 1.0 2.0 0.00 0.11 0.00 97 1014.1
20210922091613 73 153 1.0 2.0 0.00 0.11 0.00 97 1014.1
20210922091448 73 153 0.0 2.0 0.00 0.11 0.00 97 1014.0
20210922091358 73 153 0.0 1.0 0.00 0.11 0.00 97 1014.0
20210922091245 73 153 0.0 0.0 0.00 0.11 0.00 97 1013.9
20210922091143 73 153 0.0 0.0 0.00 0.11 0.00 97 1013.9
20210922091057 73 153 0.0 0.0 0.00 0.11 0.00 97 1013.8
20210922090952 73 153 0.0 0.0 0.00 0.11 0.00 97 1013.8
20210922090843 73 153 0.0 0.0 0.00 0.11 0.00 97 1013.8
20210922090751 73 153 0.0 0.0 0.00 0.11 0.00 97 1013.9
20210922090647 73 153 0.0 0.0 0.00 0.11 0.00 97 1013.8
20210922090600 73 153 0.0 0.0 0.00 0.11 0.00 97 1013.8
20210922090454 73 153 0.0 0.0 0.00 0.11 0.00 97 1013.9
20210922090340 73 153 0.0 0.0 0.00 0.11 0.00 97 1013.8
20210922090257 73 153 0.0 0.0 0.00 0.11 0.00 97 1013.9
20210922090144 73 153 0.0 0.0 0.00 0.11 0.00 97 1013.9
20210922090102 73 153 0.0 0.0 0.00 0.11 0.00 97 1013.9
20210922090003 73 153 0.0 0.0 0.00 0.11 0.00 97 1013.9
20210922085843 73 153 0.0 0.0 0.00 0.11 0.00 97 1013.9
20210922085739 73 153 0.0 0.0 0.00 0.11 0.00 97 1013.9
20210922085645 73 153 0.0 0.0 0.00 0.11 0.00 97 1013.9
20210922085611 73 153 0.0 0.0 0.00 0.11 0.00 97 1013.9
20210922085439 73 153 0.0 0.0 0.00 0.11 0.00 97 1013.9
20210922085352 73 153 0.0 0.0 0.00 0.11 0.00 97 1013.9
20210922085243 73 153 0.0 0.0 0.00 0.11 0.00 97 1014.0
20210922085141 73 153 0.0 0.0 0.00 0.11 0.00 97 1014.0
20210922085115 73 153 0.0 0.0 0.00 0.11 0.00 97 1014.0
20210922084950 73 153 0.0 0.0 0.00 0.11 0.00 97 1014.0
20210922084857 73 153 0.0 0.0 0.00 0.11 0.00 97 1014.0
20210922084744 73 153 0.0 0.0 0.00 0.11 0.00 97 1014.0
20210922084646 73 153 0.0 0.0 0.00 0.11 0.00 97 1014.0
20210922084558 73 153 0.0 0.0 0.00 0.11 0.00 97 1013.9
20210922084454 73 153 0.0 0.0 0.00 0.11 0.00 97 1014.1
20210922084341 73 153 0.0 0.0 0.00 0.11 0.00 97 1014.1
20210922084248 73 153 0.0 0.0 0.00 0.11 0.00 97 1014.0
20210922084149 73 153 0.0 0.0 0.00 0.11 0.00 97 1014.1
20210922084101 73 153 0.0 0.0 0.00 0.11 0.00 97 1014.1
20210922083956 73 153 0.0 0.0 0.00 0.11 0.00 97 1014.1
20210922083843 73 153 0.0 0.0 0.00 0.11 0.00 97 1014.0
20210922083755 73 153 0.0 0.0 0.00 0.11 0.00 97 1014.1
20210922083646 73 153 0.0 0.0 0.00 0.11 0.00 97 1014.1
20210922083602 73 153 0.0 0.0 0.00 0.11 0.00 97 1014.0
20210922083504 73 153 0.0 0.0 0.00 0.11 0.00 97 1014.0
20210922083350 73 153 0.0 0.0 0.00 0.11 0.00 97 1014.0
20210922083239 73 153 0.0 0.0 0.00 0.11 0.00 97 1014.1
20210922083144 73 153 0.0 0.0 0.00 0.11 0.00 97 1014.0
20210922083112 73 153 0.0 0.0 0.00 0.11 0.00 97 1014.0
20210922082941 73 153 0.0 0.0 0.00 0.11 0.00 97 1014.0
20210922082854 73 153 0.0 0.0 0.00 0.11 0.00 97 1014.0
20210922082741 73 153 0.0 0.0 0.00 0.11 0.00 97 1014.0
20210922082639 73 153 0.0 0.0 0.00 0.11 0.00 97 1014.0
20210922082555 73 153 0.0 0.0 0.00 0.11 0.00 97 1014.0
20210922082449 73 153 0.0 0.0 0.00 0.11 0.00 97 1014.0
20210922082356 73 153 0.0 0.0 0.00 0.11 0.00 97 1013.9
20210922082243 73 153 0.0 0.0 0.00 0.11 0.00 97 1014.0
20210922082141 73 153 0.0 0.0 0.00 0.11 0.00 97 1013.9
20210922082058 73 153 0.0 0.0 0.00 0.11 0.00 97 1014.0
20210922081953 73 153 0.0 0.0 0.00 0.11 0.00 97 1014.0
20210922081839 73 153 0.0 0.0 0.00 0.11 0.00 97 1014.0
20210922081753 73 153 0.0 0.0 0.00 0.11 0.00 97 1013.9
20210922081649 73 153 0.0 0.0 0.00 0.11 0.00 97 1013.9
20210922081556 73 153 0.0 0.0 0.00 0.11 0.00 97 1014.0
20210922081501 73 153 0.0 0.0 0.00 0.11 0.00 97 1013.9
20210922081348 73 153 0.0 0.0 0.00 0.11 0.00 97 1014.0
20210922081255 73 153 0.0 0.0 0.00 0.11 0.00 97 1013.9
20210922081143 73 153 0.0 0.0 0.00 0.11 0.00 97 1013.9
20210922081100 73 153 0.0 0.0 0.00 0.11 0.00 97 1013.9
20210922081005 73 153 0.0 0.0 0.00 0.11 0.00 97 1013.9
20210922080851 73 153 0.0 0.0 0.00 0.11 0.00 97 1014.0
20210922080758 73 153 0.0 0.0 0.00 0.11 0.00 97 1014.0
20210922080644 73 153 0.0 0.0 0.00 0.11 0.00 97 1014.1
20210922080609 73 153 0.0 0.0 0.00 0.11 0.00 97 1014.1
20210922080448 73 153 0.0 0.0 0.00 0.11 0.00 97 1014.1
20210922080355 73 153 0.0 0.0 0.00 0.11 0.00 97 1014.1
20210922080242 73 153 0.0 0.0 0.00 0.11 0.00 97 1014.1
20210922080140 73 153 0.0 0.0 0.00 0.11 0.00 97 1014.1
20210922080053 73 153 0.0 0.0 0.00 0.11 0.00 97 1014.1
20210922075948 73 153 0.0 0.0 0.00 0.11 0.00 97 1014.2
20210922075858 73 153 0.0 0.0 0.00 0.11 0.00 97 1014.1
20210922075745 73 153 0.0 0.0 0.00 0.11 0.00 97 1014.1
20210922075643 73 153 0.0 0.0 0.00 0.11 0.00 97 1014.0
20210922075557 73 153 0.0 0.0 0.00 0.11 0.00 97 1014.1
20210922075452 73 153 0.0 0.0 0.00 0.11 0.00 97 1014.0
20210922075343 73 153 0.0 1.0 0.00 0.11 0.00 97 1014.0
20210922075256 73 153 0.0 1.0 0.00 0.11 0.00 97 1014.0
20210922075143 73 153 0.0 1.0 0.00 0.11 0.00 97 1014.0
20210922075101 73 153 0.0 1.0 0.00 0.11 0.00 97 1014.1
20210922075002 73 153 0.0 1.0 0.00 0.11 0.00 97 1014.1
20210922074853 73 153 0.0 1.0 0.00 0.11 0.00 97 1014.1
20210922074742 73 153 0.0 1.0 0.00 0.11 0.00 97 1014.1
20210922074647 73 153 0.0 1.0 0.00 0.11 0.00 97 1014.1
20210922074604 73 153 0.0 1.0 0.00 0.11 0.00 97 1014.0
20210922074439 73 153 0.0 1.0 0.00 0.11 0.00 97 1014.0
20210922074352 73 153 0.0 1.0 0.00 0.11 0.00 97 1014.0
20210922074242 73 153 0.0 0.0 0.00 0.11 0.00 97 1014.0
20210922074139 73 153 0.0 0.0 0.00 0.11 0.00 97 1014.1
20210922074112 73 153 0.0 0.0 0.00 0.11 0.00 97 1014.1
20210922073948 73 153 0.0 0.0 0.00 0.11 0.00 97 1014.1
20210922073854 73 153 0.0 0.0 0.00 0.11 0.00 97 1014.1
20210922073745 73 153 0.0 0.0 0.00 0.11 0.00 97 1014.1
20210922073643 73 153 0.0 0.0 0.00 0.11 0.00 97 1014.1
20210922073555 73 153 0.0 0.0 0.00 0.11 0.00 97 1014.2
20210922073450 73 153 0.0 0.0 0.00 0.11 0.00 97 1014.1
20210922073356 73 153 0.0 0.0 0.00 0.11 0.00 97 1014.1
20210922073247 73 153 0.0 0.0 0.00 0.11 0.00 97 1014.2
20210922073145 73 153 0.0 0.0 0.00 0.11 0.00 97 1014.2
20210922073059 73 153 0.0 0.0 0.00 0.11 0.00 97 1014.2
20210922072953 73 153 0.0 0.0 0.00 0.11 0.00 97 1014.2
20210922072841 73 153 0.0 0.0 0.00 0.11 0.00 97 1014.3
20210922072754 73 153 0.0 0.0 0.00 0.11 0.00 97 1014.3
20210922072645 74 153 0.0 0.0 0.00 0.11 0.00 97 1014.3
20210922072603 73 153 0.0 0.0 0.00 0.11 0.00 97 1014.3
20210922072505 73 153 0.0 0.0 0.00 0.11 0.00 97 1014.3
20210922072351 73 153 0.0 0.0 0.00 0.11 0.00 97 1014.3
20210922072258 74 153 0.0 0.0 0.00 0.11 0.00 97 1014.2
20210922072140 74 153 0.0 0.0 0.00 0.11 0.00 97 1014.3
20210922072114 73 153 0.0 0.0 0.00 0.11 0.00 97 1014.2
20210922071951 74 153 0.0 0.0 0.00 0.11 0.00 97 1014.3
20210922071855 74 153 0.0 0.0 0.00 0.11 0.00 97 1014.2
20210922071741 74 153 0.0 0.0 0.00 0.11 0.00 97 1014.3
20210922071643 74 153 0.0 0.0 0.00 0.11 0.00 97 1014.3
20210922071556 74 153 0.0 0.0 0.00 0.11 0.00 97 1014.4
20210922071450 74 153 0.0 0.0 0.00 0.11 0.00 96 1014.4
20210922071357 74 153 0.0 0.0 0.00 0.11 0.00 97 1014.4
20210922071243 74 153 0.0 0.0 0.00 0.11 0.00 97 1014.3
20210922071144 74 153 0.0 0.0 0.00 0.11 0.00 97 1014.3
20210922071058 74 153 0.0 0.0 0.00 0.11 0.00 97 1014.4
20210922070953 74 153 0.0 0.0 0.00 0.11 0.00 97 1014.4
20210922070839 74 153 0.0 0.0 0.00 0.11 0.00 96 1014.3
20210922070753 74 153 0.0 0.0 0.00 0.11 0.00 96 1014.4
20210922070649 74 153 0.0 0.0 0.00 0.11 0.00 96 1014.3
20210922070601 74 153 0.0 0.0 0.00 0.11 0.00 97 1014.3
20210922070502 74 153 0.0 0.0 0.00 0.11 0.00 97 1014.3
20210922070348 74 153 0.0 0.0 0.00 0.11 0.00 97 1014.4
20210922070255 74 153 0.0 0.0 0.00 0.11 0.00 97 1014.4
20210922070141 74 153 0.0 0.0 0.00 0.11 0.00 97 1014.3
20210922070110 74 153 0.0 0.0 0.00 0.11 0.00 97 1014.3
20210922065945 74 153 0.0 0.0 0.00 0.11 0.00 97 1014.4
20210922065850 74 153 0.0 0.0 0.00 0.11 0.00 97 1014.4
20210922065757 74 153 0.0 0.0 0.00 0.11 0.00 97 1014.4
20210922065643 74 153 0.0 0.0 0.00 0.11 0.00 97 1014.4
20210922065608 74 153 0.0 0.0 0.00 0.11 0.00 97 1014.4
20210922065447 74 153 0.0 0.0 0.00 0.11 0.00 97 1014.4
20210922065353 74 153 0.0 0.0 0.00 0.11 0.00 97 1014.5
20210922065239 74 153 0.0 0.0 0.00 0.11 0.00 97 1014.5
20210922065145 74 153 0.0 0.0 0.00 0.11 0.00 97 1014.4
20210922065109 74 153 0.0 0.0 0.00 0.11 0.00 97 1014.5
20210922064948 74 153 0.0 0.0 0.00 0.11 0.00 97 1014.5
20210922064854 74 153 0.0 0.0 0.00 0.11 0.00 96 1014.5
20210922064740 74 153 0.0 0.0 0.00 0.11 0.00 97 1014.6
20210922064647 74 153 0.0 0.0 0.00 0.11 0.00 96 1014.6
20210922064550 74 153 0.0 0.0 0.00 0.11 0.00 96 1014.6
20210922064449 74 153 0.0 0.0 0.00 0.11 0.00 96 1014.6
20210922064402 74 153 0.0 0.0 0.00 0.11 0.00 96 1014.6
20210922064251 74 153 0.0 0.0 0.00 0.11 0.00 96 1014.6
20210922064147 74 153 0.0 0.0 0.00 0.11 0.00 96 1014.6
20210922064053 74 153 0.0 0.0 0.00 0.11 0.00 96 1014.5
20210922063952 74 153 0.0 0.0 0.00 0.11 0.00 96 1014.6
20210922063842 74 153 0.0 0.0 0.00 0.11 0.00 96 1014.6
20210922063749 74 153 0.0 0.0 0.00 0.11 0.00 96 1014.6
20210922063646 74 153 0.0 0.0 0.00 0.11 0.00 96 1014.7
20210922063600 74 153 0.0 0.0 0.00 0.11 0.00 96 1014.7
20210922063455 74 153 0.0 0.0 0.00 0.11 0.00 96 1014.7
20210922063345 74 153 0.0 0.0 0.00 0.11 0.00 96 1014.8
20210922063252 74 153 0.0 0.0 0.00 0.11 0.00 96 1014.8
20210922063149 74 153 0.0 0.0 0.00 0.11 0.00 96 1014.8
20210922063101 74 153 0.0 0.0 0.00 0.11 0.00 96 1014.7
20210922062956 74 153 0.0 0.0 0.00 0.11 0.00 96 1014.7
20210922062845 74 153 0.0 0.0 0.00 0.11 0.00 96 1014.8
20210922062759 74 153 0.0 0.0 0.00 0.11 0.00 96 1014.8
20210922062646 74 153 0.0 0.0 0.00 0.11 0.00 96 1014.8
20210922062603 74 153 0.0 0.0 0.00 0.11 0.00 96 1014.8
20210922062504 74 153 0.0 0.0 0.00 0.11 0.00 96 1014.8
20210922062344 74 153 0.0 0.0 0.00 0.11 0.00 96 1014.8
20210922062305 74 153 0.0 0.0 0.00 0.11 0.00 96 1014.9
20210922062148 74 153 0.0 0.0 0.00 0.11 0.00 96 1014.9
20210922062105 74 153 0.0 0.0 0.00 0.11 0.00 96 1014.9
20210922061941 74 153 0.0 0.0 0.00 0.11 0.00 96 1014.9
20210922061853 74 153 0.0 0.0 0.00 0.11 0.00 96 1015.0
20210922061744 74 153 0.0 0.0 0.00 0.11 0.00 96 1015.0
20210922061641 74 153 0.0 0.0 0.00 0.11 0.00 96 1015.0
20210922061615 74 153 0.0 0.0 0.00 0.11 0.00 96 1015.0
20210922061449 74 153 0.0 0.0 0.00 0.11 0.00 96 1015.1
20210922061355 74 153 0.0 0.0 0.00 0.11 0.00 96 1015.0
20210922061246 74 153 0.0 0.0 0.00 0.11 0.00 96 1015.0
20210922061143 74 153 0.0 0.0 0.00 0.11 0.00 96 1015.0
20210922061056 74 153 0.0 0.0 0.00 0.11 0.00 96 1015.1
20210922060951 74 153 0.0 0.0 0.00 0.11 0.00 96 1015.0
20210922060857 74 153 0.0 0.0 0.00 0.11 0.00 96 1015.0
20210922060743 74 153 0.0 0.0 0.00 0.11 0.00 96 1015.1
20210922060644 74 153 0.0 0.0 0.00 0.11 0.00 96 1015.1
20210922060556 74 153 0.0 0.0 0.00 0.11 0.00 96 1015.1
20210922060451 74 153 0.0 0.0 0.00 0.11 0.00 96 1015.2
20210922060404 74 153 0.0 0.0 0.00 0.11 0.00 96 1015.1
20210922060251 74 153 0.0 0.0 0.00 0.11 0.00 96 1015.1
20210922060141 74 153 0.0 0.0 0.00 0.11 0.00 95 1015.2
20210922060055 74 153 0.0 0.0 0.00 0.11 0.00 96 1015.2
20210922055949 74 153 0.0 0.0 0.00 0.11 0.00 96 1015.2
20210922055902 74 153 0.0 0.0 0.00 0.11 0.00 96 1015.2
20210922055748 74 153 0.0 0.0 0.00 0.11 0.00 96 1015.3
20210922055639 74 153 0.0 0.0 0.00 0.11 0.00 96 1015.4
20210922055558 74 153 0.0 0.0 0.00 0.11 0.00 96 1015.4
20210922055459 74 153 0.0 0.0 0.00 0.11 0.00 96 1015.3
20210922055346 74 153 0.0 0.0 0.00 0.11 0.00 96 1015.4
20210922055253 75 153 0.0 0.0 0.00 0.11 0.00 96 1015.4
20210922055149 74 153 0.0 0.0 0.00 0.11 0.00 96 1015.4
20210922055107 74 153 0.0 0.0 0.00 0.11 0.00 95 1015.3
20210922054941 74 153 0.0 0.0 0.00 0.11 0.00 95 1015.3
20210922054848 74 153 0.0 0.0 0.00 0.11 0.00 95 1015.4
20210922054755 74 153 0.0 0.0 0.00 0.11 0.00 95 1015.3
20210922054642 75 153 0.0 0.0 0.00 0.11 0.00 95 1015.3
20210922054609 75 153 0.0 0.0 0.00 0.11 0.00 95 1015.3
20210922054444 75 153 0.0 0.0 0.00 0.11 0.00 95 1015.3
20210922054350 75 153 0.0 0.0 0.00 0.11 0.00 95 1015.4
20210922054257 75 153 0.0 0.0 0.00 0.11 0.00 95 1015.3
20210922054144 75 153 0.0 0.0 0.00 0.11 0.00 95 1015.3
20210922054051 75 153 0.0 0.0 0.00 0.11 0.00 95 1015.4
20210922053946 75 153 0.0 0.0 0.00 0.11 0.00 95 1015.4
20210922053859 75 153 0.0 0.0 0.00 0.11 0.00 95 1015.4
20210922053805 75 153 0.0 0.0 0.00 0.11 0.00 95 1015.3
20210922053643 75 153 0.0 0.0 0.00 0.11 0.00 95 1015.3
20210922053551 75 153 0.0 0.0 0.00 0.11 0.00 95 1015.4
20210922053456 75 153 0.0 0.0 0.00 0.11 0.00 95 1015.4
20210922053343 75 153 0.0 0.0 0.00 0.11 0.00 95 1015.3
20210922053249 75 153 0.0 0.0 0.00 0.11 0.00 95 1015.4
20210922053145 75 153 0.0 0.0 0.00 0.11 0.00 95 1015.5
20210922053057 75 153 0.0 0.0 0.00 0.11 0.00 95 1015.5
20210922052957 75 153 0.0 0.0 0.00 0.11 0.00 95 1015.6
20210922052844 75 153 0.0 0.0 0.00 0.11 0.00 95 1015.6
20210922052750 75 153 0.0 0.0 0.00 0.11 0.00 95 1015.6
20210922052647 75 153 0.0 0.0 0.00 0.11 0.00 95 1015.5
20210922052559 75 153 0.0 0.0 0.00 0.11 0.00 95 1015.5
20210922052454 75 153 0.0 0.0 0.00 0.11 0.00 95 1015.5
20210922052345 75 153 0.0 0.0 0.00 0.11 0.00 95 1015.5
20210922052258 75 153 0.0 0.0 0.00 0.11 0.00 95 1015.4
20210922052144 75 153 0.0 0.0 0.00 0.11 0.00 95 1015.5
20210922052101 75 153 0.0 0.0 0.00 0.11 0.00 95 1015.5
20210922052003 75 153 0.0 0.0 0.00 0.11 0.00 95 1015.5
20210922051853 75 153 0.0 0.0 0.00 0.11 0.00 95 1015.5
20210922051800 75 153 0.0 0.0 0.00 0.11 0.00 95 1015.5
20210922051647 75 153 0.0 0.0 0.00 0.11 0.00 95 1015.5
20210922051606 75 153 0.0 0.0 0.00 0.11 0.00 95 1015.5
20210922051441 75 153 0.0 0.0 0.00 0.11 0.00 95 1015.6
20210922051357 75 153 0.0 0.0 0.00 0.11 0.00 94 1015.6
20210922051245 75 153 0.0 0.0 0.00 0.11 0.00 95 1015.5
20210922051142 75 153 0.0 0.0 0.00 0.11 0.00 95 1015.6
20210922051114 75 153 0.0 0.0 0.00 0.11 0.00 95 1015.5
20210922050950 75 153 0.0 0.0 0.00 0.11 0.00 95 1015.6
20210922050840 75 153 0.0 0.0 0.00 0.11 0.00 95 1015.5
20210922050748 75 153 0.0 0.0 0.00 0.11 0.00 95 1015.4
20210922050645 75 153 0.0 0.0 0.00 0.11 0.00 94 1015.5
20210922050558 75 153 0.0 0.0 0.00 0.11 0.00 94 1015.5
20210922050453 75 153 0.0 0.0 0.00 0.11 0.00 94 1015.5
20210922050358 75 153 0.0 0.0 0.00 0.11 0.00 94 1015.5
20210922050249 75 153 0.0 0.0 0.00 0.11 0.00 94 1015.6
20210922050144 75 153 0.0 0.0 0.00 0.11 0.00 94 1015.6
20210922050057 75 153 0.0 0.0 0.00 0.11 0.00 94 1015.6
20210922045953 75 153 0.0 0.0 0.00 0.11 0.11 94 1015.6
20210922045905 75 153 0.0 0.0 0.00 0.11 0.11 94 1015.7
20210922045755 75 153 0.0 0.0 0.00 0.11 0.11 94 1015.6
20210922045642 75 153 0.0 0.0 0.00 0.11 0.11 94 1015.7
20210922045600 75 153 0.0 0.0 0.00 0.11 0.11 94 1015.7
20210922045502 75 153 0.0 0.0 0.00 0.11 0.11 94 1015.6
20210922045342 75 153 0.0 0.0 0.00 0.11 0.11 94 1015.7
20210922045241 75 153 0.0 0.0 0.00 0.11 0.11 94 1015.8
20210922045145 75 153 0.0 0.0 0.00 0.11 0.11 94 1015.8
20210922045104 75 153 0.0 0.0 0.00 0.11 0.11 94 1015.8
20210922044939 75 153 0.0 0.0 0.00 0.11 0.11 94 1015.9
20210922044852 75 153 0.0 0.0 0.00 0.11 0.11 94 1015.9
20210922044739 75 153 0.0 0.0 0.00 0.11 0.11 94 1015.9
20210922044641 75 153 0.0 0.0 0.00 0.11 0.11 94 1016.0
20210922044616 75 153 0.0 0.0 0.00 0.11 0.11 94 1016.0
20210922044450 75 153 0.0 0.0 0.00 0.11 0.11 94 1015.9
20210922044357 75 153 0.0 0.0 0.00 0.11 0.11 94 1016.0
20210922044244 75 153 0.0 0.0 0.00 0.11 0.11 94 1016.1
20210922044140 75 153 0.0 0.0 0.00 0.11 0.11 94 1016.0
20210922044053 75 153 0.0 0.0 0.00 0.11 0.11 94 1016.1
20210922043947 75 153 0.0 0.0 0.00 0.11 0.11 94 1016.1
20210922043854 75 153 0.0 0.0 0.00 0.11 0.11 94 1016.0
20210922043807 75 153 0.0 0.0 0.00 0.11 0.11 94 1016.0
20210922043644 75 153 0.0 0.0 0.00 0.11 0.11 94 1016.0
20210922043555 75 153 0.0 0.0 0.00 0.11 0.11 94 1016.0
20210922043456 75 153 0.0 0.0 0.00 0.11 0.11 94 1016.0
20210922043343 75 153 0.0 0.0 0.00 0.11 0.11 94 1016.0
20210922043249 75 153 0.0 0.0 0.00 0.11 0.11 94 1016.1
20210922043147 75 153 0.0 0.0 0.00 0.11 0.11 94 1016.0
20210922043106 75 153 0.0 0.0 0.00 0.11 0.11 94 1016.1
20210922042940 75 153 0.0 0.0 0.00 0.11 0.11 94 1016.1
20210922042847 75 153 0.0 0.0 0.00 0.11 0.11 94 1016.1
20210922042753 75 153 0.0 0.0 0.00 0.11 0.11 94 1016.1
20210922042640 75 153 0.0 0.0 0.00 0.11 0.11 94 1016.1
20210922042604 75 153 0.0 0.0 0.00 0.11 0.11 94 1016.1
20210922042443 75 153 0.0 0.0 0.00 0.11 0.11 94 1016.1
20210922042350 75 153 0.0 0.0 0.00 0.11 0.11 94 1016.1
20210922042305 75 153 0.0 0.0 0.00 0.11 0.11 94 1016.1
20210922042151 75 153 0.0 0.0 0.00 0.11 0.11 94 1016.1
20210922042108 75 153 0.0 0.0 0.00 0.11 0.11 94 1016.1
20210922041947 75 153 0.0 0.0 0.00 0.11 0.11 94 1016.1
20210922041853 75 153 0.0 0.0 0.00 0.11 0.11 94 1016.1
20210922041740 76 153 0.0 0.0 0.00 0.11 0.11 94 1016.1
20210922041644 75 153 0.0 0.0 0.00 0.11 0.11 94 1016.1
20210922041551 76 153 0.0 0.0 0.00 0.11 0.11 94 1016.1
20210922041456 76 153 0.0 0.0 0.00 0.11 0.11 94 1016.1
20210922041403 75 153 0.0 0.0 0.00 0.11 0.11 94 1016.0
20210922041250 76 153 0.0 0.0 0.00 0.11 0.11 94 1016.1
20210922041148 76 153 0.0 0.0 0.00 0.11 0.11 94 1016.1
20210922041101 76 153 0.0 0.0 0.00 0.11 0.11 94 1016.1
20210922040940 76 153 0.0 0.0 0.00 0.11 0.11 94 1016.1
20210922040847 76 153 0.0 0.0 0.00 0.11 0.11 94 1016.2
20210922040754 76 153 0.0 0.0 0.00 0.11 0.11 94 1016.2
20210922040641 76 153 0.0 0.0 0.00 0.11 0.11 94 1016.3
20210922040604 76 153 0.0 0.0 0.00 0.11 0.11 94 1016.3
20210922040440 76 153 0.0 0.0 0.00 0.11 0.11 94 1016.4
20210922040351 76 153 0.0 0.0 0.00 0.11 0.11 94 1016.4
20210922040258 76 153 0.0 0.0 0.00 0.11 0.11 94 1016.4
20210922040145 76 153 0.0 0.0 0.00 0.11 0.11 94 1016.4
20210922040108 76 153 0.0 0.0 0.00 0.11 0.11 94 1016.3
20210922035944 76 153 0.0 0.0 0.00 0.11 0.11 94 1016.4
20210922035855 76 153 0.0 0.0 0.00 0.11 0.11 94 1016.3
20210922035742 76 153 0.0 0.0 0.00 0.11 0.11 94 1016.4
20210922035639 76 153 0.0 0.0 0.00 0.11 0.11 94 1016.4
20210922035552 76 153 0.0 0.0 0.00 0.11 0.11 94 1016.4
20210922035447 76 153 0.0 0.0 0.00 0.11 0.11 94 1016.4
20210922035401 76 153 0.0 0.0 0.00 0.11 0.11 94 1016.5
20210922035252 76 153 0.0 0.0 0.00 0.11 0.11 94 1016.5
20210922035149 76 153 0.0 0.0 0.00 0.11 0.11 94 1016.4
20210922035056 76 153 0.0 0.0 0.00 0.11 0.11 94 1016.4
20210922034956 76 153 0.0 0.0 0.00 0.11 0.11 94 1016.4
20210922034843 76 153 0.0 0.0 0.00 0.11 0.11 94 1016.5
20210922034753 76 153 0.0 0.0 0.00 0.11 0.11 94 1016.4
20210922034641 76 153 0.0 0.0 0.00 0.11 0.11 94 1016.3
20210922034604 76 153 0.0 0.0 0.00 0.11 0.11 94 1016.3
20210922034459 76 153 0.0 0.0 0.00 0.11 0.11 94 1016.3